Wetterdaten: Montag, 20.02.2023
Datum Zeit Temp. Aussen Temp. o. S. Temp +5cm Feuchte Auss Luftdruck Regen Sonnenschein Regendauer Solar Windben Empfang
20.02.2023 00:00 5,2 C 4,4 C 2,2 C 92 % 1027,4 hPa 0,0 l/m 0 min 0 min 0 W/m 12,9 km/h (3 Bft) 97,87 %
20.02.2023 00:02 5,2 C 4,4 C 2,2 C 92 % 1027,4 hPa 0,0 l/m 0 min 0 min 0 W/m 6,4 km/h (2 Bft) 96,97 %
20.02.2023 00:04 5,2 C 4,4 C 2,2 C 93 % 1027,3 hPa 0,0 l/m 0 min 0 min 0 W/m 6,4 km/h (2 Bft) 97,87 %
20.02.2023 00:08 5,2 C 4,4 C 2,2 C 92 % 1027,4 hPa 0,0 l/m 0 min 0 min 0 W/m 9,7 km/h (2 Bft) 95,70 %
20.02.2023 00:10 5,2 C 4,4 C 2,2 C 92 % 1027,4 hPa 0,0 l/m 0 min 0 min 0 W/m 6,4 km/h (2 Bft) 97,87 %
20.02.2023 00:12 5,2 C 4,4 C 2,2 C 92 % 1027,4 hPa 0,0 l/m 0 min 0 min 0 W/m 6,4 km/h (2 Bft) 97,87 %
20.02.2023 00:14 5,2 C 4,4 C 2,2 C 93 % 1027,5 hPa 0,0 l/m 0 min 0 min 0 W/m 9,7 km/h (2 Bft) 97,87 %
20.02.2023 00:16 5,2 C 4,4 C 2,2 C 93 % 1027,4 hPa 0,0 l/m 0 min 0 min 0 W/m 6,4 km/h (2 Bft) 97,87 %
20.02.2023 00:18 5,2 C 4,4 C 1,7 C 93 % 1027,4 hPa 0,0 l/m 0 min 0 min 0 W/m 6,4 km/h (2 Bft) 97,87 %
20.02.2023 00:20 5,2 C 4,4 C 1,7 C 93 % 1027,3 hPa 0,0 l/m 0 min 0 min 0 W/m 3,2 km/h (1 Bft) 97,83 %
20.02.2023 00:22 5,2 C 4,4 C 1,7 C 93 % 1027,3 hPa 0,0 l/m 0 min 0 min 0 W/m 3,2 km/h (1 Bft) 95,74 %
20.02.2023 00:24 5,2 C 3,9 C 1,7 C 93 % 1027,3 hPa 0,0 l/m 0 min 0 min 0 W/m 9,7 km/h (2 Bft) 100,00 %
20.02.2023 00:26 5,2 C 3,9 C 1,7 C 93 % 1027,2 hPa 0,0 l/m 0 min 0 min 0 W/m 6,4 km/h (2 Bft) 100,00 %
20.02.2023 00:28 5,1 C 3,9 C 1,7 C 93 % 1027,3 hPa 0,0 l/m 0 min 0 min 0 W/m 6,4 km/h (2 Bft) 100,00 %
20.02.2023 00:30 5,1 C 3,9 C 1,7 C 93 % 1027,2 hPa 0,0 l/m 0 min 0 min 0 W/m 9,7 km/h (2 Bft) 100,00 %
20.02.2023 00:32 5,1 C 3,9 C 1,7 C 93 % 1027,2 hPa 0,0 l/m 0 min 0 min 0 W/m 12,9 km/h (3 Bft) 100,00 %
20.02.2023 00:34 5,1 C 3,9 C 1,7 C 93 % 1027,2 hPa 0,0 l/m 0 min 0 min 0 W/m 6,4 km/h (2 Bft) 97,87 %
20.02.2023 00:36 5,1 C 3,9 C 1,7 C 93 % 1027,2 hPa 0,0 l/m 0 min 0 min 0 W/m 6,4 km/h (2 Bft) 97,87 %
20.02.2023 00:38 5,1 C 3,9 C 1,7 C 93 % 1027,2 hPa 0,0 l/m 0 min 0 min 0 W/m 6,4 km/h (2 Bft) 97,87 %
20.02.2023 00:40 5,1 C 3,9 C 1,7 C 93 % 1027,2 hPa 0,0 l/m 0 min 0 min 0 W/m 6,4 km/h (2 Bft) 95,65 %
20.02.2023 00:42 5,1 C 3,9 C 1,7 C 93 % 1027,2 hPa 0,0 l/m 0 min 0 min 0 W/m 12,9 km/h (3 Bft) 97,87 %
20.02.2023 00:44 5,1 C 3,9 C 1,7 C 93 % 1027,2 hPa 0,0 l/m 0 min 0 min 0 W/m 9,7 km/h (2 Bft) 97,87 %
20.02.2023 00:46 5,1 C 4,4 C 1,7 C 93 % 1027,1 hPa 0,0 l/m 0 min 0 min 0 W/m 19,3 km/h (3 Bft) 97,87 %
20.02.2023 00:48 5,1 C 4,4 C 1,7 C 93 % 1027,1 hPa 0,0 l/m 0 min 0 min 0 W/m 12,9 km/h (3 Bft) 97,87 %
20.02.2023 00:50 5,1 C 3,9 C 1,7 C 93 % 1027,1 hPa 0,0 l/m 0 min 0 min 0 W/m 6,4 km/h (2 Bft) 97,87 %
20.02.2023 00:52 5,1 C 3,9 C 1,7 C 93 % 1027,1 hPa 0,0 l/m 0 min 0 min 0 W/m 6,4 km/h (2 Bft) 95,65 %
20.02.2023 00:54 5,1 C 3,9 C 1,7 C 93 % 1027,0 hPa 0,0 l/m 0 min 0 min 0 W/m 6,4 km/h (2 Bft) 97,87 %
20.02.2023 00:56 5,1 C 3,9 C 1,7 C 93 % 1027,0 hPa 0,0 l/m 0 min 0 min 0 W/m 6,4 km/h (2 Bft) 95,74 %
20.02.2023 00:58 5,0 C 3,9 C 1,7 C 93 % 1027,0 hPa 0,0 l/m 0 min 0 min 0 W/m 6,4 km/h (2 Bft) 97,87 %
20.02.2023 01:00 5,0 C 3,9 C 1,7 C 93 % 1027,0 hPa 0,0 l/m 0 min 0 min 0 W/m 9,7 km/h (2 Bft) 100,00 %
20.02.2023 01:02 5,0 C 3,9 C 1,7 C 93 % 1026,9 hPa 0,0 l/m 0 min 0 min 0 W/m 6,4 km/h (2 Bft) 93,62 %
20.02.2023 01:04 5,0 C 3,9 C 1,7 C 93 % 1026,8 hPa 0,0 l/m 0 min 0 min 0 W/m 6,4 km/h (2 Bft) 95,74 %
20.02.2023 01:06 5,0 C 3,9 C 1,7 C 93 % 1026,9 hPa 0,0 l/m 0 min 0 min 0 W/m 9,7 km/h (2 Bft) 98,31 %
20.02.2023 01:08 5,0 C 3,9 C 1,7 C 93 % 1026,9 hPa 0,0 l/m 0 min 0 min 0 W/m 12,9 km/h (3 Bft) 97,14 %
20.02.2023 01:10 5,0 C 3,9 C 1,7 C 94 % 1026,8 hPa 0,0 l/m 0 min 0 min 0 W/m 6,4 km/h (2 Bft) 97,87 %
20.02.2023 01:12 4,9 C 3,9 C 1,7 C 94 % 1026,8 hPa 0,0 l/m 0 min 0 min 0 W/m 12,9 km/h (3 Bft) 95,65 %
20.02.2023 01:14 4,9 C 3,9 C 1,7 C 94 % 1026,7 hPa 0,0 l/m 0 min 0 min 0 W/m 6,4 km/h (2 Bft) 95,74 %
20.02.2023 01:16 4,9 C 3,9 C 1,7 C 94 % 1026,8 hPa 0,0 l/m 0 min 0 min 0 W/m 12,9 km/h (3 Bft) 95,74 %
20.02.2023 01:18 5,0 C 3,9 C 1,7 C 94 % 1026,8 hPa 0,0 l/m 0 min 0 min 0 W/m 16,1 km/h (3 Bft) 95,74 %
20.02.2023 01:20 4,9 C 3,9 C 1,7 C 94 % 1026,8 hPa 0,0 l/m 0 min 0 min 0 W/m 12,9 km/h (3 Bft) 97,87 %
20.02.2023 01:22 4,9 C 3,9 C 1,7 C 94 % 1026,7 hPa 0,0 l/m 0 min 0 min 0 W/m 6,4 km/h (2 Bft) 93,62 %
20.02.2023 01:24 5,0 C 3,9 C 1,7 C 94 % 1026,7 hPa 0,0 l/m 0 min 0 min 0 W/m 9,7 km/h (2 Bft) 93,62 %
20.02.2023 01:26 5,0 C 3,9 C 1,7 C 94 % 1026,7 hPa 0,0 l/m 0 min 0 min 0 W/m 9,7 km/h (2 Bft) 97,83 %
20.02.2023 01:28 4,9 C 3,9 C 1,7 C 94 % 1026,8 hPa 0,0 l/m 0 min 0 min 0 W/m 12,9 km/h (3 Bft) 95,74 %
20.02.2023 01:30 5,0 C 3,9 C 1,7 C 94 % 1026,7 hPa 0,0 l/m 0 min 0 min 0 W/m 12,9 km/h (3 Bft) 95,74 %
20.02.2023 01:32 5,0 C 4,4 C 1,7 C 94 % 1026,8 hPa 0,0 l/m 0 min 0 min 0 W/m 12,9 km/h (3 Bft) 95,74 %
20.02.2023 01:34 5,0 C 4,4 C 1,7 C 94 % 1026,7 hPa 0,0 l/m 0 min 0 min 0 W/m 12,9 km/h (3 Bft) 97,87 %
20.02.2023 01:36 5,0 C 4,4 C 1,7 C 94 % 1026,8 hPa 0,0 l/m 0 min 0 min 0 W/m 12,9 km/h (3 Bft) 93,62 %
20.02.2023 01:38 5,0 C 4,4 C 1,7 C 94 % 1026,7 hPa 0,0 l/m 0 min 0 min 0 W/m 9,7 km/h (2 Bft) 97,83 %
20.02.2023 01:40 5,1 C 4,4 C 1,7 C 94 % 1026,7 hPa 0,0 l/m 0 min 0 min 0 W/m 9,7 km/h (2 Bft) 95,74 %
20.02.2023 01:42 5,1 C 4,4 C 1,7 C 94 % 1026,6 hPa 0,0 l/m 0 min 0 min 0 W/m 12,9 km/h (3 Bft) 93,62 %
20.02.2023 01:44 5,1 C 4,4 C 1,7 C 95 % 1026,7 hPa 0,0 l/m 0 min 0 min 0 W/m 9,7 km/h (2 Bft) 93,62 %
20.02.2023 01:46 5,1 C 4,4 C 1,7 C 95 % 1026,7 hPa 0,0 l/m 0 min 0 min 0 W/m 9,7 km/h (2 Bft) 93,62 %
20.02.2023 01:48 5,1 C 4,4 C 1,7 C 95 % 1026,6 hPa 0,0 l/m 0 min 0 min 0 W/m 12,9 km/h (3 Bft) 94,34 %
20.02.2023 01:50 5,1 C 4,4 C 2,2 C 95 % 1026,5 hPa 0,0 l/m 0 min 0 min 0 W/m 9,7 km/h (2 Bft) 95,74 %
20.02.2023 01:52 5,1 C 4,4 C 2,2 C 95 % 1026,5 hPa 0,0 l/m 0 min 0 min 0 W/m 6,4 km/h (2 Bft) 95,74 %
20.02.2023 01:54 5,1 C 4,4 C 2,2 C 95 % 1026,4 hPa 0,0 l/m 0 min 0 min 0 W/m 9,7 km/h (2 Bft) 92,68 %
20.02.2023 01:56 5,1 C 4,4 C 2,2 C 95 % 1026,4 hPa 0,0 l/m 0 min 0 min 0 W/m 9,7 km/h (2 Bft) 93,62 %
20.02.2023 01:58 5,1 C 4,4 C 2,2 C 95 % 1026,4 hPa 0,0 l/m 0 min 0 min 0 W/m 12,9 km/h (3 Bft) 95,74 %
20.02.2023 02:00 5,2 C 4,4 C 2,2 C 95 % 1026,3 hPa 0,0 l/m 0 min 0 min 0 W/m 12,9 km/h (3 Bft) 93,62 %
20.02.2023 02:02 5,2 C 4,4 C 2,2 C 95 % 1026,2 hPa 0,0 l/m 0 min 0 min 0 W/m 12,9 km/h (3 Bft) 95,74 %
20.02.2023 02:04 5,2 C 4,4 C 2,2 C 95 % 1026,2 hPa 0,0 l/m 0 min 0 min 0 W/m 12,9 km/h (3 Bft) 95,65 %
20.02.2023 02:06 5,2 C 4,4 C 2,2 C 95 % 1026,2 hPa 0,0 l/m 0 min 0 min 0 W/m 12,9 km/h (3 Bft) 96,61 %
20.02.2023 02:08 5,2 C 4,4 C 2,2 C 95 % 1026,2 hPa 0,0 l/m 0 min 0 min 0 W/m 16,1 km/h (3 Bft) 94,29 %
20.02.2023 02:10 5,3 C 4,4 C 2,2 C 95 % 1026,1 hPa 0,0 l/m 0 min 0 min 0 W/m 16,1 km/h (3 Bft) 95,74 %
20.02.2023 02:12 5,3 C 5,0 C 2,2 C 95 % 1026,1 hPa 0,0 l/m 0 min 0 min 0 W/m 16,1 km/h (3 Bft) 93,62 %
20.02.2023 02:14 5,3 C 5,0 C 2,2 C 95 % 1026,1 hPa 0,0 l/m 0 min 0 min 0 W/m 16,1 km/h (3 Bft) 100,00 %
20.02.2023 02:16 5,3 C 5,0 C 2,2 C 95 % 1026,1 hPa 0,0 l/m 0 min 0 min 0 W/m 12,9 km/h (3 Bft) 100,00 %
20.02.2023 02:18 5,3 C 5,0 C 2,2 C 95 % 1026,1 hPa 0,0 l/m 0 min 0 min 0 W/m 12,9 km/h (3 Bft) 97,87 %
20.02.2023 02:20 5,3 C 5,0 C 2,2 C 95 % 1026,0 hPa 0,0 l/m 0 min 0 min 0 W/m 9,7 km/h (2 Bft) 100,00 %
20.02.2023 02:22 5,3 C 5,0 C 2,2 C 95 % 1026,0 hPa 0,0 l/m 0 min 0 min 0 W/m 12,9 km/h (3 Bft) 100,00 %
20.02.2023 02:24 5,3 C 5,0 C 2,2 C 95 % 1025,9 hPa 0,0 l/m 0 min 0 min 0 W/m 12,9 km/h (3 Bft) 97,83 %
20.02.2023 02:26 5,4 C 5,0 C 2,2 C 95 % 1025,9 hPa 0,0 l/m 0 min 0 min 0 W/m 12,9 km/h (3 Bft) 100,00 %
20.02.2023 02:28 5,4 C 5,0 C 2,2 C 95 % 1025,8 hPa 0,0 l/m 0 min 0 min 0 W/m 16,1 km/h (3 Bft) 100,00 %
20.02.2023 02:30 5,4 C 5,0 C 2,2 C 95 % 1025,7 hPa 0,0 l/m 0 min 0 min 0 W/m 19,3 km/h (3 Bft) 97,87 %
20.02.2023 02:32 5,4 C 5,0 C 2,2 C 95 % 1025,7 hPa 0,0 l/m 0 min 0 min 0 W/m 16,1 km/h (3 Bft) 97,87 %
20.02.2023 02:34 5,4 C 5,0 C 2,2 C 95 % 1025,7 hPa 0,0 l/m 0 min 0 min 0 W/m 19,3 km/h (3 Bft) 97,30 %
20.02.2023 02:36 5,4 C 5,0 C 2,2 C 95 % 1025,7 hPa 0,0 l/m 0 min 0 min 0 W/m 12,9 km/h (3 Bft) 100,00 %
20.02.2023 02:38 5,4 C 5,0 C 2,2 C 95 % 1025,7 hPa 0,0 l/m 0 min 0 min 0 W/m 12,9 km/h (3 Bft) 100,00 %
20.02.2023 02:40 5,4 C 5,0 C 2,2 C 95 % 1025,7 hPa 0,0 l/m 0 min 0 min 0 W/m 22,5 km/h (4 Bft) 100,00 %
20.02.2023 02:42 5,5 C 5,0 C 2,2 C 95 % 1025,8 hPa 0,0 l/m 0 min 0 min 0 W/m 16,1 km/h (3 Bft) 100,00 %
20.02.2023 02:44 5,5 C 5,0 C 2,2 C 95 % 1025,9 hPa 0,0 l/m 0 min 0 min 0 W/m 9,7 km/h (2 Bft) 100,00 %
20.02.2023 02:46 5,5 C 5,0 C 2,2 C 95 % 1026,0 hPa 0,0 l/m 0 min 0 min 0 W/m 16,1 km/h (3 Bft) 100,00 %
20.02.2023 02:48 5,5 C 5,0 C 2,2 C 95 % 1025,9 hPa 0,0 l/m 0 min 0 min 0 W/m 12,9 km/h (3 Bft) 97,62 %
20.02.2023 02:50 5,6 C 5,0 C 2,2 C 95 % 1025,9 hPa 0,0 l/m 0 min 0 min 0 W/m 12,9 km/h (3 Bft) 100,00 %
20.02.2023 02:52 5,6 C 5,0 C 2,2 C 95 % 1025,9 hPa 0,0 l/m 0 min 0 min 0 W/m 16,1 km/h (3 Bft) 100,00 %
20.02.2023 02:54 5,6 C 5,0 C 2,2 C 95 % 1025,9 hPa 0,0 l/m 0 min 0 min 0 W/m 16,1 km/h (3 Bft) 100,00 %
20.02.2023 02:56 5,6 C 5,0 C 2,8 C 94 % 1025,9 hPa 0,0 l/m 0 min 0 min 0 W/m 16,1 km/h (3 Bft) 100,00 %
20.02.2023 02:58 5,6 C 5,0 C 2,8 C 94 % 1025,9 hPa 0,0 l/m 0 min 0 min 0 W/m 16,1 km/h (3 Bft) 100,00 %
20.02.2023 03:00 5,7 C 5,0 C 2,8 C 94 % 1025,8 hPa 0,0 l/m 0 min 0 min 0 W/m 12,9 km/h (3 Bft) 97,87 %
20.02.2023 03:02 5,7 C 5,0 C 2,8 C 94 % 1025,8 hPa 0,0 l/m 0 min 0 min 0 W/m 12,9 km/h (3 Bft) 97,87 %
20.02.2023 03:04 5,7 C 5,0 C 2,8 C 94 % 1025,8 hPa 0,0 l/m 0 min 0 min 0 W/m 16,1 km/h (3 Bft) 97,87 %
20.02.2023 03:06 5,7 C 5,0 C 2,8 C 94 % 1025,7 hPa 0,0 l/m 0 min 0 min 0 W/m 12,9 km/h (3 Bft) 98,28 %
20.02.2023 03:08 5,7 C 5,0 C 2,8 C 94 % 1025,7 hPa 0,0 l/m 0 min 0 min 0 W/m 16,1 km/h (3 Bft) 100,00 %
20.02.2023 03:10 5,7 C 5,0 C 2,8 C 94 % 1025,7 hPa 0,0 l/m 0 min 0 min 0 W/m 16,1 km/h (3 Bft) 100,00 %
20.02.2023 03:12 5,7 C 5,0 C 2,8 C 94 % 1025,6 hPa 0,0 l/m 0 min 0 min 0 W/m 19,3 km/h (3 Bft) 100,00 %
20.02.2023 03:14 5,7 C 5,0 C 2,8 C 94 % 1025,5 hPa 0,0 l/m 0 min 0 min 0 W/m 16,1 km/h (3 Bft) 100,00 %
20.02.2023 03:16 5,7 C 5,0 C 2,8 C 94 % 1025,6 hPa 0,0 l/m 0 min 0 min 0 W/m 22,5 km/h (4 Bft) 100,00 %
20.02.2023 03:18 5,7 C 5,0 C 2,8 C 94 % 1025,5 hPa 0,0 l/m 0 min 0 min 0 W/m 22,5 km/h (4 Bft) 97,92 %
20.02.2023 03:20 5,8 C 5,0 C 2,2 C 94 % 1025,5 hPa 0,0 l/m 0 min 0 min 0 W/m 16,1 km/h (3 Bft) 97,87 %
20.02.2023 03:22 5,8 C 5,0 C 2,8 C 94 % 1025,5 hPa 0,0 l/m 0 min 0 min 0 W/m 12,9 km/h (3 Bft) 100,00 %
20.02.2023 03:24 5,8 C 5,0 C 2,2 C 94 % 1025,4 hPa 0,0 l/m 0 min 0 min 0 W/m 25,7 km/h (4 Bft) 97,87 %
20.02.2023 03:26 5,8 C 5,0 C 2,8 C 94 % 1025,3 hPa 0,0 l/m 0 min 0 min 0 W/m 16,1 km/h (3 Bft) 100,00 %
20.02.2023 03:28 5,8 C 5,0 C 2,8 C 94 % 1025,2 hPa 0,0 l/m 0 min 0 min 0 W/m 19,3 km/h (3 Bft) 100,00 %
20.02.2023 03:30 5,8 C 5,0 C 2,8 C 94 % 1025,2 hPa 0,0 l/m 0 min 0 min 0 W/m 25,7 km/h (4 Bft) 100,00 %
20.02.2023 03:32 5,8 C 5,0 C 2,8 C 94 % 1025,1 hPa 0,0 l/m 0 min 0 min 0 W/m 16,1 km/h (3 Bft) 95,65 %
20.02.2023 03:34 5,9 C 5,0 C 2,8 C 94 % 1025,0 hPa 0,0 l/m 0 min 0 min 0 W/m 19,3 km/h (3 Bft) 95,74 %
20.02.2023 03:36 5,9 C 5,0 C 2,8 C 93 % 1025,1 hPa 0,0 l/m 0 min 0 min 0 W/m 19,3 km/h (3 Bft) 97,87 %
20.02.2023 03:38 5,9 C 5,0 C 2,8 C 93 % 1025,2 hPa 0,0 l/m 0 min 0 min 0 W/m 9,7 km/h (2 Bft) 98,04 %
20.02.2023 03:40 5,9 C 5,0 C 2,8 C 93 % 1025,2 hPa 0,0 l/m 0 min 0 min 0 W/m 22,5 km/h (4 Bft) 91,49 %
20.02.2023 03:42 5,9 C 5,0 C 2,8 C 93 % 1025,1 hPa 0,0 l/m 0 min 0 min 0 W/m 16,1 km/h (3 Bft) 93,48 %
20.02.2023 03:44 5,9 C 5,0 C 2,8 C 93 % 1025,0 hPa 0,0 l/m 0 min 0 min 0 W/m 32,2 km/h (5 Bft) 95,74 %
20.02.2023 03:46 5,9 C 5,0 C 2,8 C 93 % 1025,0 hPa 0,0 l/m 0 min 0 min 0 W/m 22,5 km/h (4 Bft) 94,00 %
20.02.2023 03:48 5,9 C 5,0 C 2,8 C 93 % 1025,0 hPa 0,0 l/m 0 min 0 min 0 W/m 16,1 km/h (3 Bft) 48,84 %
20.02.2023 03:50 5,9 C 5,0 C 2,8 C 93 % 1025,1 hPa 0,0 l/m 0 min 0 min 0 W/m 19,3 km/h (3 Bft) 94,44 %
20.02.2023 03:52 5,9 C 5,0 C 2,8 C 93 % 1025,1 hPa 0,0 l/m 0 min 0 min 0 W/m 12,9 km/h (3 Bft) 93,62 %
20.02.2023 03:54 5,9 C 5,0 C 2,8 C 93 % 1025,1 hPa 0,0 l/m 0 min 0 min 0 W/m 16,1 km/h (3 Bft) 91,49 %
20.02.2023 03:56 5,9 C 5,0 C 2,2 C 93 % 1025,0 hPa 0,0 l/m 0 min 0 min 0 W/m 12,9 km/h (3 Bft) 93,62 %
20.02.2023 03:58 5,8 C 5,0 C 2,2 C 93 % 1025,0 hPa 0,0 l/m 0 min 0 min 0 W/m 19,3 km/h (3 Bft) 93,48 %
20.02.2023 04:00 5,8 C 5,0 C 2,2 C 93 % 1025,0 hPa 0,0 l/m 0 min 0 min 0 W/m 12,9 km/h (3 Bft) 91,49 %
20.02.2023 04:02 5,8 C 5,0 C 2,2 C 93 % 1025,0 hPa 0,0 l/m 0 min 0 min 0 W/m 9,7 km/h (2 Bft) 96,43 %
20.02.2023 04:04 5,8 C 5,0 C 2,2 C 93 % 1025,0 hPa 0,0 l/m 0 min 0 min 0 W/m 9,7 km/h (2 Bft) 89,36 %
20.02.2023 04:06 5,8 C 5,0 C 2,2 C 93 % 1024,9 hPa 0,0 l/m 0 min 0 min 0 W/m 16,1 km/h (3 Bft) 95,74 %
20.02.2023 04:08 5,8 C 5,0 C 2,2 C 93 % 1024,9 hPa 0,0 l/m 0 min 0 min 0 W/m 12,9 km/h (3 Bft) 93,62 %
20.02.2023 04:10 5,8 C 5,0 C 2,2 C 93 % 1024,9 hPa 0,0 l/m 0 min 0 min 0 W/m 6,4 km/h (2 Bft) 95,74 %
20.02.2023 04:12 5,8 C 5,0 C 2,2 C 93 % 1025,0 hPa 0,0 l/m 0 min 0 min 0 W/m 16,1 km/h (3 Bft) 95,65 %
20.02.2023 04:14 5,8 C 5,0 C 2,2 C 93 % 1024,9 hPa 0,0 l/m 0 min 0 min 0 W/m 16,1 km/h (3 Bft) 95,45 %
20.02.2023 04:16 5,8 C 5,0 C 2,2 C 93 % 1024,9 hPa 0,0 l/m 0 min 0 min 0 W/m 16,1 km/h (3 Bft) 93,62 %
20.02.2023 04:18 5,8 C 5,0 C 2,2 C 93 % 1024,9 hPa 0,0 l/m 0 min 0 min 0 W/m 19,3 km/h (3 Bft) 95,74 %
20.02.2023 04:20 5,8 C 5,0 C 2,2 C 93 % 1024,8 hPa 0,0 l/m 0 min 0 min 0 W/m 25,7 km/h (4 Bft) 95,74 %
20.02.2023 04:22 5,8 C 5,0 C 2,2 C 93 % 1024,8 hPa 0,0 l/m 0 min 0 min 0 W/m 16,1 km/h (3 Bft) 95,65 %
20.02.2023 04:24 5,8 C 5,0 C 2,2 C 93 % 1024,8 hPa 0,0 l/m 0 min 0 min 0 W/m 19,3 km/h (3 Bft) 93,62 %
20.02.2023 04:26 5,8 C 5,0 C 2,2 C 93 % 1024,8 hPa 0,0 l/m 0 min 0 min 0 W/m 16,1 km/h (3 Bft) 91,49 %
20.02.2023 04:28 5,8 C 5,0 C 2,2 C 93 % 1024,8 hPa 0,0 l/m 0 min 0 min 0 W/m 22,5 km/h (4 Bft) 97,87 %
20.02.2023 04:30 5,8 C 5,0 C 2,2 C 93 % 1024,7 hPa 0,0 l/m 0 min 0 min 0 W/m 19,3 km/h (3 Bft) 97,87 %
20.02.2023 04:32 5,8 C 5,0 C 2,2 C 93 % 1024,7 hPa 0,0 l/m 0 min 0 min 0 W/m 12,9 km/h (3 Bft) 100,00 %
20.02.2023 04:34 5,8 C 5,0 C 2,2 C 93 % 1024,7 hPa 0,0 l/m 0 min 0 min 0 W/m 16,1 km/h (3 Bft) 100,00 %
20.02.2023 04:36 5,8 C 5,0 C 2,2 C 93 % 1024,7 hPa 0,0 l/m 0 min 0 min 0 W/m 19,3 km/h (3 Bft) 97,92 %
20.02.2023 04:38 5,7 C 5,0 C 2,2 C 93 % 1024,7 hPa 0,0 l/m 0 min 0 min 0 W/m 16,1 km/h (3 Bft) 100,00 %
20.02.2023 04:40 5,7 C 5,0 C 2,2 C 92 % 1024,7 hPa 0,0 l/m 0 min 0 min 0 W/m 22,5 km/h (4 Bft) 97,87 %
20.02.2023 04:42 5,7 C 5,0 C 2,2 C 93 % 1024,7 hPa 0,0 l/m 0 min 0 min 0 W/m 12,9 km/h (3 Bft) 100,00 %
20.02.2023 04:44 5,7 C 5,0 C 2,2 C 93 % 1024,6 hPa 0,0 l/m 0 min 0 min 0 W/m 19,3 km/h (3 Bft) 100,00 %
20.02.2023 04:46 5,7 C 5,0 C 2,2 C 93 % 1024,6 hPa 0,0 l/m 0 min 0 min 0 W/m 16,1 km/h (3 Bft) 100,00 %
20.02.2023 04:48 5,7 C 5,0 C 2,2 C 93 % 1024,6 hPa 0,0 l/m 0 min 0 min 0 W/m 19,3 km/h (3 Bft) 100,00 %
20.02.2023 04:50 5,7 C 5,0 C 2,2 C 93 % 1024,6 hPa 0,0 l/m 0 min 0 min 0 W/m 19,3 km/h (3 Bft) 100,00 %
20.02.2023 04:52 5,7 C 5,0 C 2,2 C 93 % 1024,6 hPa 0,0 l/m 0 min 0 min 0 W/m 22,5 km/h (4 Bft) 100,00 %
20.02.2023 04:54 5,7 C 5,0 C 2,2 C 93 % 1024,7 hPa 0,0 l/m 0 min 0 min 0 W/m 16,1 km/h (3 Bft) 97,87 %
20.02.2023 04:56 5,7 C 5,0 C 2,2 C 93 % 1024,6 hPa 0,0 l/m 0 min 0 min 0 W/m 6,4 km/h (2 Bft) 51,16 %
20.02.2023 04:58 5,7 C 5,0 C 2,2 C 93 % 1024,7 hPa 0,0 l/m 0 min 0 min 0 W/m 12,9 km/h (3 Bft) 100,00 %
20.02.2023 05:00 5,7 C 5,0 C 2,2 C 93 % 1024,6 hPa 0,0 l/m 0 min 0 min 0 W/m 19,3 km/h (3 Bft) 100,00 %
20.02.2023 05:02 5,6 C 5,0 C 2,2 C 93 % 1024,6 hPa 0,0 l/m 0 min 0 min 0 W/m 19,3 km/h (3 Bft) 100,00 %
20.02.2023 05:04 5,6 C 5,0 C 2,2 C 93 % 1024,6 hPa 0,0 l/m 0 min 0 min 0 W/m 19,3 km/h (3 Bft) 97,87 %
20.02.2023 05:06 5,7 C 5,0 C 2,2 C 93 % 1024,6 hPa 0,0 l/m 0 min 0 min 0 W/m 29,0 km/h (5 Bft) 100,00 %
20.02.2023 05:08 5,7 C 5,0 C 2,2 C 93 % 1024,6 hPa 0,0 l/m 0 min 0 min 0 W/m 19,3 km/h (3 Bft) 100,00 %
20.02.2023 05:10 5,6 C 5,0 C 2,2 C 93 % 1024,6 hPa 0,0 l/m 0 min 0 min 0 W/m 16,1 km/h (3 Bft) 100,00 %
20.02.2023 05:12 5,7 C 5,0 C 2,2 C 93 % 1024,6 hPa 0,0 l/m 0 min 0 min 0 W/m 29,0 km/h (5 Bft) 97,87 %
20.02.2023 05:14 5,7 C 5,0 C 2,2 C 93 % 1024,5 hPa 0,0 l/m 0 min 0 min 0 W/m 29,0 km/h (5 Bft) 100,00 %
20.02.2023 05:16 5,7 C 5,0 C 2,2 C 93 % 1024,5 hPa 0,0 l/m 0 min 0 min 0 W/m 22,5 km/h (4 Bft) 100,00 %
20.02.2023 05:18 5,6 C 5,0 C 2,2 C 93 % 1024,6 hPa 0,0 l/m 0 min 0 min 0 W/m 16,1 km/h (3 Bft) 97,87 %
20.02.2023 05:20 5,6 C 5,0 C 2,2 C 93 % 1024,6 hPa 0,0 l/m 0 min 0 min 0 W/m 19,3 km/h (3 Bft) 100,00 %
20.02.2023 05:22 5,6 C 5,0 C 2,2 C 93 % 1024,6 hPa 0,0 l/m 0 min 0 min 0 W/m 16,1 km/h (3 Bft) 100,00 %
20.02.2023 05:24 5,6 C 5,0 C 2,2 C 93 % 1024,6 hPa 0,0 l/m 0 min 0 min 0 W/m 16,1 km/h (3 Bft) 97,30 %
20.02.2023 05:26 5,6 C 5,0 C 2,2 C 93 % 1024,6 hPa 0,0 l/m 0 min 0 min 0 W/m 12,9 km/h (3 Bft) 97,87 %
20.02.2023 05:28 5,6 C 5,0 C 2,2 C 92 % 1024,6 hPa 0,0 l/m 0 min 0 min 0 W/m 29,0 km/h (5 Bft) 95,74 %
20.02.2023 05:30 5,6 C 5,0 C 2,2 C 92 % 1024,6 hPa 0,0 l/m 0 min 0 min 0 W/m 22,5 km/h (4 Bft) 97,87 %
20.02.2023 05:32 5,6 C 5,0 C 2,2 C 93 % 1024,6 hPa 0,0 l/m 0 min 0 min 0 W/m 16,1 km/h (3 Bft) 97,83 %
20.02.2023 05:34 5,6 C 5,0 C 2,2 C 93 % 1024,6 hPa 0,0 l/m 0 min 0 min 0 W/m 19,3 km/h (3 Bft) 95,74 %
20.02.2023 05:36 5,6 C 5,0 C 2,2 C 93 % 1024,6 hPa 0,0 l/m 0 min 0 min 0 W/m 19,3 km/h (3 Bft) 97,87 %
20.02.2023 05:38 5,6 C 5,0 C 2,2 C 93 % 1024,6 hPa 0,0 l/m 0 min 0 min 0 W/m 16,1 km/h (3 Bft) 95,74 %
20.02.2023 05:40 5,6 C 5,0 C 2,2 C 93 % 1024,5 hPa 0,0 l/m 0 min 0 min 0 W/m 16,1 km/h (3 Bft) 97,87 %
20.02.2023 05:42 5,6 C 5,0 C 2,2 C 93 % 1024,5 hPa 0,0 l/m 0 min 0 min 0 W/m 19,3 km/h (3 Bft) 97,87 %
20.02.2023 05:44 5,6 C 5,0 C 2,2 C 93 % 1024,6 hPa 0,0 l/m 0 min 0 min 0 W/m 12,9 km/h (3 Bft) 97,87 %
20.02.2023 05:46 5,6 C 5,0 C 2,2 C 93 % 1024,7 hPa 0,0 l/m 0 min 0 min 0 W/m 12,9 km/h (3 Bft) 95,65 %
20.02.2023 05:48 5,6 C 5,0 C 2,2 C 93 % 1024,6 hPa 0,0 l/m 0 min 0 min 0 W/m 19,3 km/h (3 Bft) 97,87 %
20.02.2023 05:50 5,6 C 5,0 C 2,2 C 93 % 1024,6 hPa 0,0 l/m 0 min 0 min 0 W/m 9,7 km/h (2 Bft) 97,87 %
20.02.2023 05:52 5,6 C 5,0 C 2,2 C 93 % 1024,6 hPa 0,0 l/m 0 min 0 min 0 W/m 12,9 km/h (3 Bft) 97,87 %
20.02.2023 05:54 5,6 C 4,4 C 2,2 C 93 % 1024,5 hPa 0,0 l/m 0 min 0 min 0 W/m 9,7 km/h (2 Bft) 97,87 %
20.02.2023 05:56 5,6 C 4,4 C 2,2 C 93 % 1024,5 hPa 0,0 l/m 0 min 0 min 0 W/m 12,9 km/h (3 Bft) 97,87 %
20.02.2023 05:58 5,5 C 4,4 C 2,2 C 93 % 1024,5 hPa 0,0 l/m 0 min 0 min 0 W/m 19,3 km/h (3 Bft) 97,83 %
20.02.2023 06:00 5,5 C 4,4 C 2,2 C 93 % 1024,4 hPa 0,0 l/m 0 min 0 min 0 W/m 12,9 km/h (3 Bft) 100,00 %
20.02.2023 06:02 5,5 C 4,4 C 2,2 C 93 % 1024,4 hPa 0,0 l/m 0 min 0 min 0 W/m 19,3 km/h (3 Bft) 100,00 %
20.02.2023 06:04 5,5 C 4,4 C 2,2 C 93 % 1024,3 hPa 0,0 l/m 0 min 0 min 0 W/m 16,1 km/h (3 Bft) 100,00 %
20.02.2023 06:07 5,5 C 4,4 C 2,2 C 93 % 1024,4 hPa 0,0 l/m 0 min 0 min 0 W/m 16,1 km/h (3 Bft) 98,72 %
20.02.2023 06:08 5,5 C 4,4 C 2,2 C 93 % 1024,4 hPa 0,0 l/m 0 min 0 min 0 W/m 12,9 km/h (3 Bft) 100,00 %
20.02.2023 06:12 5,4 C 4,4 C 2,2 C 93 % 1024,4 hPa 0,0 l/m 0 min 0 min 0 W/m 12,9 km/h (3 Bft) 98,04 %
20.02.2023 06:14 5,4 C 4,4 C 2,2 C 93 % 1024,3 hPa 0,0 l/m 0 min 0 min 0 W/m 16,1 km/h (3 Bft) 98,18 %
20.02.2023 06:15 5,4 C 4,4 C 2,2 C 93 % 1024,3 hPa 0,0 l/m 0 min 0 min 0 W/m 9,7 km/h (2 Bft) 100,00 %
20.02.2023 06:18 5,4 C 4,4 C 2,2 C 93 % 1024,4 hPa 0,0 l/m 0 min 0 min 0 W/m 6,4 km/h (2 Bft) 93,55 %
20.02.2023 06:20 5,4 C 4,4 C 2,2 C 93 % 1024,5 hPa 0,0 l/m 0 min 0 min 0 W/m 16,1 km/h (3 Bft) 95,74 %
20.02.2023 06:22 5,4 C 4,4 C 2,2 C 93 % 1024,4 hPa 0,0 l/m 0 min 0 min 0 W/m 6,4 km/h (2 Bft) 97,87 %
20.02.2023 06:24 5,4 C 4,4 C 2,2 C 93 % 1024,4 hPa 0,0 l/m 0 min 0 min 0 W/m 16,1 km/h (3 Bft) 95,65 %
20.02.2023 06:26 5,4 C 4,4 C 2,2 C 93 % 1024,4 hPa 0,0 l/m 0 min 0 min 0 W/m 16,1 km/h (3 Bft) 97,87 %
20.02.2023 06:28 5,4 C 4,4 C 2,2 C 93 % 1024,5 hPa 0,0 l/m 0 min 0 min 0 W/m 16,1 km/h (3 Bft) 95,74 %
20.02.2023 06:30 5,3 C 4,4 C 2,2 C 93 % 1024,5 hPa 0,0 l/m 0 min 0 min 0 W/m 16,1 km/h (3 Bft) 95,74 %
20.02.2023 06:32 5,3 C 4,4 C 2,2 C 93 % 1024,6 hPa 0,0 l/m 0 min 0 min 0 W/m 12,9 km/h (3 Bft) 97,87 %
20.02.2023 06:34 5,3 C 4,4 C 2,2 C 93 % 1024,6 hPa 0,0 l/m 0 min 0 min 0 W/m 16,1 km/h (3 Bft) 97,87 %
20.02.2023 06:36 5,4 C 4,4 C 2,2 C 93 % 1024,6 hPa 0,0 l/m 0 min 0 min 0 W/m 19,3 km/h (3 Bft) 97,83 %
20.02.2023 06:38 5,3 C 4,4 C 2,2 C 94 % 1024,6 hPa 0,0 l/m 0 min 0 min 0 W/m 12,9 km/h (3 Bft) 97,87 %
20.02.2023 06:40 5,3 C 4,4 C 2,2 C 94 % 1024,6 hPa 0,0 l/m 0 min 0 min 0 W/m 6,4 km/h (2 Bft) 97,87 %
20.02.2023 06:42 5,3 C 4,4 C 2,2 C 94 % 1024,6 hPa 0,0 l/m 0 min 0 min 0 W/m 19,3 km/h (3 Bft) 97,87 %
20.02.2023 06:44 5,3 C 4,4 C 2,2 C 94 % 1024,6 hPa 0,0 l/m 0 min 0 min 0 W/m 25,7 km/h (4 Bft) 93,62 %
20.02.2023 06:46 5,3 C 4,4 C 2,2 C 94 % 1024,6 hPa 0,0 l/m 0 min 0 min 0 W/m 12,9 km/h (3 Bft) 95,74 %
20.02.2023 06:48 5,3 C 4,4 C 2,2 C 94 % 1024,5 hPa 0,0 l/m 0 min 0 min 0 W/m 9,7 km/h (2 Bft) 93,62 %
20.02.2023 06:50 5,3 C 5,0 C 2,2 C 94 % 1024,5 hPa 0,0 l/m 0 min 0 min 0 W/m 16,1 km/h (3 Bft) 93,48 %
20.02.2023 06:52 5,3 C 5,0 C 2,2 C 94 % 1024,5 hPa 0,0 l/m 0 min 0 min 0 W/m 12,9 km/h (3 Bft) 98,18 %
20.02.2023 06:54 5,3 C 5,0 C 2,2 C 94 % 1024,4 hPa 0,0 l/m 0 min 0 min 0 W/m 12,9 km/h (3 Bft) 93,62 %
20.02.2023 06:56 5,3 C 5,0 C 2,2 C 94 % 1024,3 hPa 0,0 l/m 0 min 0 min 0 W/m 12,9 km/h (3 Bft) 97,87 %
20.02.2023 06:58 5,4 C 5,0 C 2,2 C 94 % 1024,4 hPa 0,0 l/m 0 min 0 min 0 W/m 6,4 km/h (2 Bft) 97,87 %
20.02.2023 07:00 5,3 C 5,0 C 2,2 C 94 % 1024,3 hPa 0,0 l/m 0 min 0 min 0 W/m 12,9 km/h (3 Bft) 97,87 %
20.02.2023 07:02 5,3 C 5,0 C 2,2 C 94 % 1024,4 hPa 0,0 l/m 0 min 0 min 0 W/m 12,9 km/h (3 Bft) 93,48 %
20.02.2023 07:04 5,3 C 5,0 C 2,2 C 94 % 1024,4 hPa 0,0 l/m 0 min 0 min 0 W/m 16,1 km/h (3 Bft) 97,67 %
20.02.2023 07:06 5,3 C 5,0 C 2,2 C 94 % 1024,4 hPa 0,0 l/m 0 min 0 min 0 W/m 6,4 km/h (2 Bft) 97,87 %
20.02.2023 07:08 5,3 C 5,0 C 2,2 C 94 % 1024,4 hPa 0,0 l/m 0 min 0 min 0 W/m 9,7 km/h (2 Bft) 52,27 %
20.02.2023 07:10 5,3 C 5,0 C 2,2 C 94 % 1024,4 hPa 0,0 l/m 0 min 0 min 0 W/m 19,3 km/h (3 Bft) 97,87 %
20.02.2023 07:12 5,3 C 5,0 C 2,2 C 94 % 1024,4 hPa 0,0 l/m 0 min 0 min 0 W/m 9,7 km/h (2 Bft) 97,87 %
20.02.2023 07:14 5,3 C 5,0 C 2,2 C 94 % 1024,4 hPa 0,0 l/m 0 min 0 min 0 W/m 12,9 km/h (3 Bft) 97,83 %
20.02.2023 07:16 5,3 C 5,0 C 2,2 C 94 % 1024,4 hPa 0,0 l/m 0 min 0 min 0 W/m 9,7 km/h (2 Bft) 97,87 %
20.02.2023 07:18 5,3 C 5,0 C 2,2 C 94 % 1024,4 hPa 0,0 l/m 0 min 0 min 0 W/m 16,1 km/h (3 Bft) 95,74 %
20.02.2023 07:20 5,3 C 5,0 C 2,2 C 94 % 1024,4 hPa 0,0 l/m 0 min 0 min 0 W/m 16,1 km/h (3 Bft) 87,23 %
20.02.2023 07:22 5,3 C 5,0 C 2,2 C 94 % 1024,4 hPa 0,0 l/m 0 min 0 min 0 W/m 16,1 km/h (3 Bft) 95,74 %
20.02.2023 07:24 5,3 C 5,0 C 2,2 C 94 % 1024,5 hPa 0,0 l/m 0 min 0 min 0 W/m 16,1 km/h (3 Bft) 93,62 %
20.02.2023 07:26 5,3 C 5,0 C 2,2 C 94 % 1024,4 hPa 0,0 l/m 0 min 0 min 0 W/m 12,9 km/h (3 Bft) 95,65 %
20.02.2023 07:28 5,4 C 5,0 C 2,2 C 94 % 1024,5 hPa 0,0 l/m 0 min 0 min 0 W/m 6,4 km/h (2 Bft) 95,74 %
20.02.2023 07:30 5,4 C 5,0 C 2,2 C 94 % 1024,5 hPa 0,0 l/m 0 min 0 min 0 W/m 19,3 km/h (3 Bft) 95,74 %
20.02.2023 07:32 5,4 C 5,0 C 2,2 C 94 % 1024,7 hPa 0,0 l/m 0 min 0 min 0 W/m 22,5 km/h (4 Bft) 95,74 %
20.02.2023 07:34 5,4 C 5,0 C 2,2 C 94 % 1024,7 hPa 0,0 l/m 0 min 0 min 0 W/m 19,3 km/h (3 Bft) 97,87 %
20.02.2023 07:36 5,4 C 5,0 C 2,2 C 94 % 1024,7 hPa 0,0 l/m 0 min 0 min 0 W/m 16,1 km/h (3 Bft) 95,74 %
20.02.2023 07:38 5,4 C 5,0 C 2,2 C 94 % 1024,6 hPa 0,0 l/m 0 min 0 min 0 W/m 19,3 km/h (3 Bft) 95,74 %
20.02.2023 07:40 5,4 C 5,0 C 2,2 C 94 % 1024,7 hPa 0,0 l/m 0 min 0 min 0 W/m 25,7 km/h (4 Bft) 97,83 %
20.02.2023 07:42 5,4 C 5,0 C 2,2 C 94 % 1024,7 hPa 0,0 l/m 0 min 0 min 0 W/m 19,3 km/h (3 Bft) 97,87 %
20.02.2023 07:44 5,4 C 5,0 C 2,2 C 94 % 1024,8 hPa 0,0 l/m 0 min 0 min 0 W/m 12,9 km/h (3 Bft) 95,74 %
20.02.2023 07:46 5,4 C 5,0 C 2,2 C 94 % 1024,7 hPa 0,0 l/m 0 min 0 min 0 W/m 16,1 km/h (3 Bft) 97,87 %
20.02.2023 07:48 5,4 C 5,0 C 2,2 C 94 % 1024,7 hPa 0,0 l/m 0 min 0 min 0 W/m 16,1 km/h (3 Bft) 100,00 %
20.02.2023 07:50 5,4 C 5,0 C 2,2 C 94 % 1024,7 hPa 0,0 l/m 0 min 0 min 0 W/m 16,1 km/h (3 Bft) 100,00 %
20.02.2023 07:52 5,4 C 5,0 C 2,2 C 94 % 1024,7 hPa 0,0 l/m 0 min 0 min 0 W/m 22,5 km/h (4 Bft) 100,00 %
20.02.2023 07:54 5,4 C 5,0 C 2,2 C 94 % 1024,7 hPa 0,0 l/m 0 min 0 min 0 W/m 16,1 km/h (3 Bft) 100,00 %
20.02.2023 07:56 5,4 C 5,0 C 2,2 C 94 % 1024,6 hPa 0,0 l/m 0 min 0 min 0 W/m 16,1 km/h (3 Bft) 82,98 %
20.02.2023 07:58 5,4 C 5,0 C 2,2 C 94 % 1024,7 hPa 0,0 l/m 0 min 0 min 0 W/m 16,1 km/h (3 Bft) 68,09 %
20.02.2023 08:00 5,4 C 5,0 C 2,2 C 94 % 1024,7 hPa 0,0 l/m 0 min 0 min 0 W/m 16,1 km/h (3 Bft) 74,47 %
20.02.2023 08:02 5,4 C 5,0 C 2,2 C 94 % 1024,7 hPa 0,0 l/m 0 min 0 min 0 W/m 25,7 km/h (4 Bft) 46,81 %
20.02.2023 08:04 5,5 C 5,0 C 2,2 C 94 % 1024,7 hPa 0,0 l/m 0 min 0 min 3 W/m 22,5 km/h (4 Bft) 42,55 %
20.02.2023 08:06 5,5 C 5,0 C 2,2 C 94 % 1024,7 hPa 0,0 l/m 0 min 0 min 5 W/m 16,1 km/h (3 Bft) 52,17 %
20.02.2023 08:08 5,5 C 5,0 C 2,2 C 94 % 1024,7 hPa 0,0 l/m 0 min 0 min 5 W/m 19,3 km/h (3 Bft) 76,60 %
20.02.2023 08:10 5,5 C 5,0 C 2,2 C 94 % 1024,8 hPa 0,0 l/m 0 min 0 min 6 W/m 12,9 km/h (3 Bft) 91,49 %
20.02.2023 08:12 5,5 C 5,0 C 2,8 C 94 % 1024,7 hPa 0,0 l/m 0 min 0 min 7 W/m 16,1 km/h (3 Bft) 97,87 %
20.02.2023 08:14 5,5 C 5,0 C 2,8 C 94 % 1024,9 hPa 0,0 l/m 0 min 0 min 9 W/m 25,7 km/h (4 Bft) 93,62 %
20.02.2023 08:16 5,5 C 5,0 C 2,8 C 94 % 1024,8 hPa 0,0 l/m 0 min 0 min 11 W/m 22,5 km/h (4 Bft) 100,00 %
20.02.2023 08:18 5,6 C 5,0 C 2,8 C 94 % 1024,7 hPa 0,0 l/m 0 min 0 min 12 W/m 19,3 km/h (3 Bft) 95,74 %
20.02.2023 08:20 5,6 C 5,0 C 2,8 C 94 % 1024,8 hPa 0,0 l/m 0 min 0 min 14 W/m 19,3 km/h (3 Bft) 89,13 %
20.02.2023 08:22 5,6 C 5,0 C 2,8 C 94 % 1024,8 hPa 0,0 l/m 0 min 0 min 17 W/m 19,3 km/h (3 Bft) 89,36 %
20.02.2023 08:24 5,6 C 5,0 C 2,8 C 94 % 1024,7 hPa 0,0 l/m 0 min 0 min 18 W/m 9,7 km/h (2 Bft) 93,62 %
20.02.2023 08:26 5,6 C 5,0 C 2,8 C 94 % 1024,7 hPa 0,0 l/m 0 min 0 min 19 W/m 19,3 km/h (3 Bft) 100,00 %
20.02.2023 08:28 5,6 C 5,0 C 2,8 C 94 % 1024,7 hPa 0,0 l/m 0 min 0 min 20 W/m 16,1 km/h (3 Bft) 100,00 %
20.02.2023 08:30 5,6 C 5,0 C 2,8 C 94 % 1024,7 hPa 0,0 l/m 0 min 0 min 20 W/m 22,5 km/h (4 Bft) 95,74 %
20.02.2023 08:32 5,6 C 5,0 C 2,8 C 94 % 1024,8 hPa 0,0 l/m 0 min 0 min 22 W/m 16,1 km/h (3 Bft) 95,65 %
20.02.2023 08:34 5,6 C 5,0 C 2,8 C 93 % 1024,7 hPa 0,0 l/m 0 min 0 min 23 W/m 22,5 km/h (4 Bft) 95,74 %
20.02.2023 08:36 5,6 C 5,0 C 2,8 C 93 % 1024,8 hPa 0,0 l/m 0 min 0 min 24 W/m 16,1 km/h (3 Bft) 95,74 %
20.02.2023 08:38 5,7 C 5,0 C 2,8 C 93 % 1024,8 hPa 0,0 l/m 0 min 0 min 23 W/m 16,1 km/h (3 Bft) 95,74 %
20.02.2023 08:40 5,7 C 5,0 C 2,8 C 93 % 1024,8 hPa 0,0 l/m 0 min 0 min 26 W/m 16,1 km/h (3 Bft) 100,00 %
20.02.2023 08:42 5,7 C 5,6 C 2,8 C 93 % 1024,8 hPa 0,0 l/m 0 min 0 min 28 W/m 12,9 km/h (3 Bft) 97,87 %
20.02.2023 08:44 5,7 C 5,6 C 2,8 C 93 % 1024,8 hPa 0,0 l/m 0 min 0 min 32 W/m 16,1 km/h (3 Bft) 97,83 %
20.02.2023 08:46 5,7 C 5,6 C 2,8 C 93 % 1024,8 hPa 0,0 l/m 0 min 0 min 35 W/m 16,1 km/h (3 Bft) 95,74 %
20.02.2023 08:48 5,7 C 5,6 C 2,8 C 93 % 1024,8 hPa 0,0 l/m 0 min 0 min 42 W/m 16,1 km/h (3 Bft) 97,87 %
20.02.2023 08:50 5,8 C 5,6 C 2,8 C 93 % 1024,7 hPa 0,0 l/m 0 min 0 min 49 W/m 19,3 km/h (3 Bft) 97,87 %
20.02.2023 08:52 5,8 C 5,6 C 2,8 C 93 % 1024,8 hPa 0,0 l/m 0 min 0 min 61 W/m 19,3 km/h (3 Bft) 93,62 %
20.02.2023 08:54 5,8 C 5,6 C 2,8 C 93 % 1024,7 hPa 0,0 l/m 0 min 0 min 69 W/m 19,3 km/h (3 Bft) 96,00 %
20.02.2023 08:56 5,8 C 5,6 C 2,8 C 93 % 1024,6 hPa 0,0 l/m 0 min 0 min 69 W/m 25,7 km/h (4 Bft) 95,74 %
20.02.2023 08:58 5,8 C 5,6 C 2,8 C 93 % 1024,7 hPa 0,0 l/m 0 min 0 min 66 W/m 22,5 km/h (4 Bft) 97,87 %
20.02.2023 09:00 5,9 C 5,6 C 2,8 C 93 % 1024,7 hPa 0,0 l/m 0 min 0 min 60 W/m 25,7 km/h (4 Bft) 95,74 %
20.02.2023 09:02 5,9 C 5,6 C 2,8 C 93 % 1024,7 hPa 0,0 l/m 0 min 0 min 55 W/m 16,1 km/h (3 Bft) 93,62 %
20.02.2023 09:04 5,9 C 5,6 C 3,3 C 93 % 1024,7 hPa 0,0 l/m 0 min 0 min 49 W/m 6,4 km/h (2 Bft) 91,49 %
20.02.2023 09:06 6,0 C 5,6 C 3,3 C 93 % 1024,8 hPa 0,0 l/m 0 min 0 min 46 W/m 16,1 km/h (3 Bft) 97,87 %
20.02.2023 09:08 6,0 C 5,6 C 3,3 C 93 % 1024,8 hPa 0,0 l/m 0 min 0 min 42 W/m 12,9 km/h (3 Bft) 97,87 %
20.02.2023 09:10 6,0 C 5,6 C 3,3 C 93 % 1024,8 hPa 0,0 l/m 0 min 0 min 42 W/m 19,3 km/h (3 Bft) 95,74 %
20.02.2023 09:12 6,0 C 5,6 C 3,3 C 93 % 1024,8 hPa 0,0 l/m 0 min 0 min 45 W/m 19,3 km/h (3 Bft) 84,78 %
20.02.2023 09:14 6,1 C 5,6 C 3,3 C 93 % 1024,8 hPa 0,0 l/m 0 min 0 min 47 W/m 16,1 km/h (3 Bft) 95,74 %
20.02.2023 09:16 6,1 C 5,6 C 3,3 C 93 % 1024,8 hPa 0,0 l/m 0 min 0 min 55 W/m 25,7 km/h (4 Bft) 95,83 %
20.02.2023 09:18 6,1 C 5,6 C 3,3 C 93 % 1024,8 hPa 0,0 l/m 0 min 0 min 66 W/m 22,5 km/h (4 Bft) 85,11 %
20.02.2023 09:20 6,1 C 6,1 C 3,3 C 93 % 1024,8 hPa 0,0 l/m 0 min 0 min 72 W/m 19,3 km/h (3 Bft) 93,62 %
20.02.2023 09:22 6,1 C 6,1 C 3,3 C 93 % 1024,8 hPa 0,0 l/m 0 min 0 min 66 W/m 25,7 km/h (4 Bft) 91,49 %
20.02.2023 09:24 6,1 C 6,1 C 3,3 C 93 % 1024,8 hPa 0,0 l/m 0 min 0 min 53 W/m 12,9 km/h (3 Bft) 95,65 %
20.02.2023 09:26 6,2 C 6,1 C 3,3 C 92 % 1024,7 hPa 0,0 l/m 0 min 0 min 48 W/m 19,3 km/h (3 Bft) 95,74 %
20.02.2023 09:28 6,2 C 6,1 C 3,3 C 92 % 1024,7 hPa 0,0 l/m 0 min 0 min 46 W/m 16,1 km/h (3 Bft) 57,45 %
20.02.2023 09:30 6,2 C 6,1 C 3,3 C 92 % 1024,8 hPa 0,0 l/m 0 min 0 min 56 W/m 16,1 km/h (3 Bft) 93,18 %
20.02.2023 09:32 6,2 C 6,1 C 3,3 C 92 % 1024,8 hPa 0,0 l/m 0 min 0 min 63 W/m 16,1 km/h (3 Bft) 95,74 %
20.02.2023 09:34 6,2 C 6,1 C 3,3 C 92 % 1024,7 hPa 0,0 l/m 0 min 0 min 55 W/m 22,5 km/h (4 Bft) 97,87 %
20.02.2023 09:36 6,3 C 6,1 C 3,3 C 92 % 1024,8 hPa 0,0 l/m 0 min 0 min 47 W/m 12,9 km/h (3 Bft) 93,48 %
20.02.2023 09:38 6,3 C 6,1 C 3,3 C 92 % 1024,7 hPa 0,0 l/m 0 min 0 min 45 W/m 16,1 km/h (3 Bft) 93,62 %
20.02.2023 09:40 6,3 C 6,1 C 3,3 C 92 % 1024,6 hPa 0,0 l/m 0 min 0 min 44 W/m 12,9 km/h (3 Bft) 95,74 %
20.02.2023 09:42 6,3 C 6,1 C 3,3 C 92 % 1024,6 hPa 0,0 l/m 0 min 0 min 45 W/m 12,9 km/h (3 Bft) 95,74 %
20.02.2023 09:44 6,3 C 6,1 C 3,3 C 92 % 1024,6 hPa 0,0 l/m 0 min 0 min 46 W/m 22,5 km/h (4 Bft) 95,74 %
20.02.2023 09:46 6,3 C 6,1 C 3,3 C 92 % 1024,6 hPa 0,0 l/m 0 min 0 min 51 W/m 19,3 km/h (3 Bft) 95,74 %
20.02.2023 09:48 6,3 C 6,1 C 3,3 C 92 % 1024,6 hPa 0,0 l/m 0 min 0 min 75 W/m 29,0 km/h (5 Bft) 97,87 %
20.02.2023 09:50 6,3 C 6,1 C 3,3 C 92 % 1024,6 hPa 0,0 l/m 0 min 0 min 77 W/m 19,3 km/h (3 Bft) 93,48 %
20.02.2023 09:52 6,3 C 6,1 C 3,3 C 92 % 1024,6 hPa 0,0 l/m 0 min 0 min 73 W/m 16,1 km/h (3 Bft) 95,74 %
20.02.2023 09:54 6,4 C 6,1 C 3,3 C 92 % 1024,6 hPa 0,0 l/m 0 min 0 min 76 W/m 25,7 km/h (4 Bft) 97,87 %
20.02.2023 09:56 6,4 C 6,1 C 3,3 C 92 % 1024,6 hPa 0,0 l/m 0 min 0 min 83 W/m 16,1 km/h (3 Bft) 61,70 %
20.02.2023 09:58 6,4 C 6,1 C 3,3 C 92 % 1024,6 hPa 0,0 l/m 0 min 0 min 84 W/m 16,1 km/h (3 Bft) 68,09 %
20.02.2023 10:00 6,4 C 6,1 C 3,3 C 92 % 1024,6 hPa 0,0 l/m 0 min 0 min 78 W/m 16,1 km/h (3 Bft) 87,23 %
20.02.2023 10:02 6,4 C 6,1 C 3,3 C 92 % 1024,7 hPa 0,0 l/m 0 min 0 min 72 W/m 25,7 km/h (4 Bft) 93,48 %
20.02.2023 10:04 6,4 C 6,1 C 3,3 C 92 % 1024,6 hPa 0,0 l/m 0 min 0 min 81 W/m 22,5 km/h (4 Bft) 97,87 %
20.02.2023 10:06 6,5 C 6,1 C 3,3 C 92 % 1024,7 hPa 0,0 l/m 0 min 0 min 91 W/m 22,5 km/h (4 Bft) 97,87 %
20.02.2023 10:08 6,5 C 6,1 C 3,3 C 91 % 1024,6 hPa 0,0 l/m 0 min 0 min 92 W/m 32,2 km/h (5 Bft) 97,87 %
20.02.2023 10:10 6,5 C 6,1 C 3,3 C 91 % 1024,6 hPa 0,0 l/m 0 min 0 min 91 W/m 16,1 km/h (3 Bft) 97,87 %
20.02.2023 10:12 6,5 C 6,1 C 3,3 C 91 % 1024,7 hPa 0,0 l/m 0 min 0 min 78 W/m 16,1 km/h (3 Bft) 95,74 %
20.02.2023 10:14 6,6 C 6,1 C 3,3 C 91 % 1024,7 hPa 0,0 l/m 0 min 0 min 67 W/m 19,3 km/h (3 Bft) 97,87 %
20.02.2023 10:16 6,6 C 6,7 C 3,9 C 91 % 1024,7 hPa 0,0 l/m 0 min 0 min 83 W/m 16,1 km/h (3 Bft) 95,65 %
20.02.2023 10:18 6,6 C 6,7 C 3,9 C 91 % 1024,7 hPa 0,0 l/m 0 min 0 min 84 W/m 12,9 km/h (3 Bft) 59,57 %
20.02.2023 10:20 6,6 C 6,7 C 3,9 C 91 % 1024,7 hPa 0,0 l/m 0 min 0 min 91 W/m 22,5 km/h (4 Bft) 97,87 %
20.02.2023 10:22 6,6 C 6,7 C 3,9 C 91 % 1024,7 hPa 0,0 l/m 0 min 0 min 103 W/m 16,1 km/h (3 Bft) 97,87 %
20.02.2023 10:24 6,6 C 6,7 C 3,9 C 91 % 1024,7 hPa 0,0 l/m 0 min 0 min 100 W/m 25,7 km/h (4 Bft) 97,87 %
20.02.2023 10:26 6,7 C 6,7 C 3,9 C 91 % 1024,6 hPa 0,0 l/m 0 min 0 min 110 W/m 25,7 km/h (4 Bft) 95,74 %
20.02.2023 10:28 6,7 C 6,7 C 3,9 C 91 % 1024,6 hPa 0,0 l/m 0 min 0 min 122 W/m 19,3 km/h (3 Bft) 100,00 %
20.02.2023 10:30 6,7 C 6,7 C 3,9 C 91 % 1024,6 hPa 0,0 l/m 0 min 0 min 115 W/m 12,9 km/h (3 Bft) 100,00 %
20.02.2023 10:32 6,8 C 6,7 C 3,9 C 91 % 1024,6 hPa 0,0 l/m 0 min 0 min 118 W/m 19,3 km/h (3 Bft) 100,00 %
20.02.2023 10:34 6,8 C 6,7 C 3,9 C 91 % 1024,7 hPa 0,0 l/m 0 min 0 min 110 W/m 22,5 km/h (4 Bft) 97,87 %
20.02.2023 10:36 6,8 C 6,7 C 3,9 C 91 % 1024,7 hPa 0,0 l/m 0 min 0 min 108 W/m 12,9 km/h (3 Bft) 100,00 %
20.02.2023 10:38 6,8 C 6,7 C 3,9 C 91 % 1024,7 hPa 0,0 l/m 0 min 0 min 114 W/m 25,7 km/h (4 Bft) 97,87 %
20.02.2023 10:40 6,8 C 6,7 C 3,9 C 91 % 1024,7 hPa 0,0 l/m 0 min 0 min 111 W/m 12,9 km/h (3 Bft) 89,36 %
20.02.2023 10:42 6,9 C 6,7 C 3,9 C 91 % 1024,7 hPa 0,0 l/m 0 min 0 min 104 W/m 19,3 km/h (3 Bft) 50,00 %
20.02.2023 10:44 6,9 C 6,7 C 3,9 C 91 % 1024,7 hPa 0,0 l/m 0 min 0 min 99 W/m 19,3 km/h (3 Bft) 97,87 %
20.02.2023 10:46 6,9 C 6,7 C 3,9 C 91 % 1024,7 hPa 0,0 l/m 0 min 0 min 97 W/m 12,9 km/h (3 Bft) 100,00 %
20.02.2023 10:48 6,9 C 6,7 C 3,9 C 91 % 1024,8 hPa 0,0 l/m 0 min 0 min 99 W/m 19,3 km/h (3 Bft) 97,87 %
20.02.2023 10:50 6,9 C 6,7 C 3,9 C 91 % 1024,8 hPa 0,0 l/m 0 min 0 min 104 W/m 12,9 km/h (3 Bft) 100,00 %
20.02.2023 10:52 6,9 C 6,7 C 3,9 C 91 % 1024,8 hPa 0,0 l/m 0 min 0 min 107 W/m 16,1 km/h (3 Bft) 100,00 %
20.02.2023 10:54 7,0 C 6,7 C 3,9 C 91 % 1024,8 hPa 0,0 l/m 0 min 0 min 115 W/m 19,3 km/h (3 Bft) 100,00 %
20.02.2023 10:56 7,0 C 6,7 C 3,9 C 91 % 1024,7 hPa 0,0 l/m 0 min 0 min 113 W/m 25,7 km/h (4 Bft) 97,83 %
20.02.2023 10:58 7,1 C 6,7 C 4,4 C 91 % 1024,7 hPa 0,0 l/m 0 min 0 min 111 W/m 16,1 km/h (3 Bft) 100,00 %
20.02.2023 11:00 7,1 C 7,2 C 4,4 C 91 % 1024,8 hPa 0,0 l/m 0 min 0 min 107 W/m 12,9 km/h (3 Bft) 97,87 %
20.02.2023 11:02 7,1 C 7,2 C 4,4 C 91 % 1024,7 hPa 0,0 l/m 0 min 0 min 112 W/m 19,3 km/h (3 Bft) 100,00 %
20.02.2023 11:04 7,1 C 7,2 C 4,4 C 91 % 1024,7 hPa 0,0 l/m 0 min 0 min 107 W/m 25,7 km/h (4 Bft) 97,87 %
20.02.2023 11:06 7,1 C 7,2 C 4,4 C 90 % 1024,7 hPa 0,0 l/m 0 min 0 min 107 W/m 16,1 km/h (3 Bft) 94,59 %
20.02.2023 11:08 7,1 C 7,2 C 4,4 C 90 % 1024,7 hPa 0,0 l/m 0 min 0 min 109 W/m 22,5 km/h (4 Bft) 100,00 %
20.02.2023 11:10 7,1 C 7,2 C 4,4 C 90 % 1024,7 hPa 0,0 l/m 0 min 0 min 109 W/m 16,1 km/h (3 Bft) 100,00 %
20.02.2023 11:12 7,2 C 7,2 C 4,4 C 90 % 1024,7 hPa 0,0 l/m 0 min 0 min 105 W/m 16,1 km/h (3 Bft) 95,65 %
20.02.2023 11:14 7,2 C 7,2 C 4,4 C 90 % 1024,7 hPa 0,0 l/m 0 min 0 min 113 W/m 19,3 km/h (3 Bft) 97,87 %
20.02.2023 11:16 7,2 C 7,2 C 4,4 C 90 % 1024,7 hPa 0,0 l/m 0 min 0 min 108 W/m 19,3 km/h (3 Bft) 95,74 %
20.02.2023 11:18 7,2 C 7,2 C 4,4 C 90 % 1024,7 hPa 0,0 l/m 0 min 0 min 100 W/m 29,0 km/h (5 Bft) 95,74 %
20.02.2023 11:20 7,2 C 7,2 C 4,4 C 90 % 1024,7 hPa 0,0 l/m 0 min 0 min 98 W/m 16,1 km/h (3 Bft) 95,74 %
20.02.2023 11:22 7,2 C 7,2 C 4,4 C 90 % 1024,8 hPa 0,0 l/m 0 min 0 min 93 W/m 22,5 km/h (4 Bft) 97,87 %
20.02.2023 11:24 7,2 C 7,2 C 4,4 C 90 % 1024,7 hPa 0,0 l/m 0 min 0 min 116 W/m 29,0 km/h (5 Bft) 95,65 %
20.02.2023 11:26 7,2 C 7,2 C 4,4 C 90 % 1024,7 hPa 0,0 l/m 0 min 0 min 112 W/m 19,3 km/h (3 Bft) 95,74 %
20.02.2023 11:28 7,2 C 7,2 C 4,4 C 90 % 1024,6 hPa 0,0 l/m 0 min 0 min 107 W/m 16,1 km/h (3 Bft) 95,74 %
20.02.2023 11:30 7,2 C 7,2 C 4,4 C 90 % 1024,6 hPa 0,0 l/m 0 min 0 min 98 W/m 12,9 km/h (3 Bft) 95,74 %
20.02.2023 11:32 7,2 C 7,2 C 4,4 C 90 % 1024,6 hPa 0,0 l/m 0 min 0 min 97 W/m 19,3 km/h (3 Bft) 97,87 %
20.02.2023 11:34 7,3 C 7,2 C 4,4 C 90 % 1024,6 hPa 0,0 l/m 0 min 0 min 105 W/m 19,3 km/h (3 Bft) 95,74 %
20.02.2023 11:36 7,3 C 7,2 C 4,4 C 90 % 1024,6 hPa 0,0 l/m 0 min 0 min 100 W/m 22,5 km/h (4 Bft) 97,83 %
20.02.2023 11:38 7,3 C 7,2 C 4,4 C 90 % 1024,6 hPa 0,0 l/m 0 min 0 min 108 W/m 19,3 km/h (3 Bft) 97,87 %
20.02.2023 11:40 7,3 C 7,2 C 4,4 C 90 % 1024,5 hPa 0,0 l/m 0 min 0 min 111 W/m 16,1 km/h (3 Bft) 95,74 %
20.02.2023 11:42 7,3 C 7,2 C 4,4 C 90 % 1024,5 hPa 0,0 l/m 0 min 0 min 106 W/m 22,5 km/h (4 Bft) 95,74 %
20.02.2023 11:44 7,3 C 7,2 C 4,4 C 90 % 1024,4 hPa 0,0 l/m 0 min 0 min 109 W/m 12,9 km/h (3 Bft) 93,62 %
20.02.2023 11:46 7,3 C 7,2 C 4,4 C 90 % 1024,4 hPa 0,0 l/m 0 min 0 min 105 W/m 25,7 km/h (4 Bft) 95,74 %
20.02.2023 11:48 7,3 C 7,2 C 4,4 C 90 % 1024,5 hPa 0,0 l/m 0 min 0 min 116 W/m 25,7 km/h (4 Bft) 97,83 %
20.02.2023 11:50 7,3 C 7,2 C 4,4 C 90 % 1024,6 hPa 0,0 l/m 0 min 0 min 121 W/m 22,5 km/h (4 Bft) 97,87 %
20.02.2023 11:52 7,3 C 7,2 C 4,4 C 90 % 1024,6 hPa 0,0 l/m 0 min 0 min 111 W/m 9,7 km/h (2 Bft) 95,74 %
20.02.2023 11:54 7,4 C 7,2 C 4,4 C 90 % 1024,6 hPa 0,0 l/m 0 min 0 min 106 W/m 12,9 km/h (3 Bft) 97,87 %
20.02.2023 11:56 7,4 C 7,2 C 4,4 C 90 % 1024,6 hPa 0,0 l/m 0 min 0 min 112 W/m 38,6 km/h (5 Bft) 95,74 %
20.02.2023 11:58 7,4 C 7,2 C 4,4 C 90 % 1024,5 hPa 0,0 l/m 0 min 0 min 112 W/m 19,3 km/h (3 Bft) 97,87 %
20.02.2023 12:00 7,4 C 7,2 C 4,4 C 90 % 1024,5 hPa 0,0 l/m 0 min 0 min 113 W/m 22,5 km/h (4 Bft) 97,87 %
20.02.2023 12:02 7,4 C 7,2 C 4,4 C 90 % 1024,4 hPa 0,0 l/m 0 min 0 min 106 W/m 12,9 km/h (3 Bft) 93,48 %
20.02.2023 12:04 7,4 C 7,2 C 4,4 C 90 % 1024,5 hPa 0,0 l/m 0 min 0 min 110 W/m 19,3 km/h (3 Bft) 97,87 %
20.02.2023 12:07 7,4 C 7,2 C 4,4 C 90 % 1024,3 hPa 0,0 l/m 0 min 0 min 120 W/m 29,0 km/h (5 Bft) 94,29 %
20.02.2023 12:08 7,5 C 7,2 C 4,4 C 90 % 1024,3 hPa 0,0 l/m 0 min 0 min 113 W/m 16,1 km/h (3 Bft) 100,00 %
20.02.2023 12:12 7,5 C 7,2 C 4,4 C 90 % 1024,1 hPa 0,0 l/m 0 min 0 min 121 W/m 19,3 km/h (3 Bft) 94,92 %
20.02.2023 12:14 7,5 C 7,2 C 4,4 C 90 % 1024,2 hPa 0,0 l/m 0 min 0 min 115 W/m 22,5 km/h (4 Bft) 97,83 %
20.02.2023 12:16 7,5 C 7,2 C 4,4 C 90 % 1024,2 hPa 0,0 l/m 0 min 0 min 115 W/m 25,7 km/h (4 Bft) 93,62 %
20.02.2023 12:18 7,5 C 7,2 C 4,4 C 90 % 1024,2 hPa 0,0 l/m 0 min 0 min 133 W/m 22,5 km/h (4 Bft) 95,74 %
20.02.2023 12:20 7,6 C 7,2 C 4,4 C 90 % 1024,2 hPa 0,0 l/m 0 min 0 min 120 W/m 19,3 km/h (3 Bft) 95,74 %
20.02.2023 12:22 7,6 C 7,2 C 4,4 C 90 % 1024,2 hPa 0,0 l/m 0 min 0 min 114 W/m 19,3 km/h (3 Bft) 95,74 %
20.02.2023 12:24 7,6 C 7,2 C 4,4 C 90 % 1024,2 hPa 0,0 l/m 0 min 0 min 105 W/m 29,0 km/h (5 Bft) 95,74 %
20.02.2023 12:26 7,6 C 7,2 C 4,4 C 90 % 1024,2 hPa 0,0 l/m 0 min 0 min 92 W/m 41,8 km/h (6 Bft) 95,74 %
20.02.2023 12:28 7,6 C 7,2 C 4,4 C 90 % 1024,2 hPa 0,0 l/m 0 min 0 min 93 W/m 32,2 km/h (5 Bft) 93,48 %
20.02.2023 12:30 7,6 C 7,2 C 4,4 C 90 % 1024,2 hPa 0,0 l/m 0 min 0 min 96 W/m 19,3 km/h (3 Bft) 93,62 %
20.02.2023 12:32 7,6 C 7,2 C 4,4 C 90 % 1024,2 hPa 0,0 l/m 0 min 0 min 100 W/m 12,9 km/h (3 Bft) 97,87 %
20.02.2023 12:34 7,6 C 7,2 C 4,4 C 90 % 1024,3 hPa 0,0 l/m 0 min 0 min 86 W/m 12,9 km/h (3 Bft) 93,62 %
20.02.2023 12:36 7,7 C 7,2 C 4,4 C 90 % 1024,3 hPa 0,0 l/m 0 min 0 min 81 W/m 19,3 km/h (3 Bft) 97,87 %
20.02.2023 12:38 7,7 C 7,2 C 4,4 C 90 % 1024,3 hPa 0,0 l/m 0 min 0 min 95 W/m 9,7 km/h (2 Bft) 97,87 %
20.02.2023 12:40 7,7 C 7,2 C 4,4 C 90 % 1024,3 hPa 0,0 l/m 0 min 0 min 80 W/m 25,7 km/h (4 Bft) 95,65 %
20.02.2023 12:42 7,7 C 7,2 C 4,4 C 90 % 1024,2 hPa 0,0 l/m 0 min 0 min 90 W/m 19,3 km/h (3 Bft) 97,87 %
20.02.2023 12:44 7,7 C 7,2 C 4,4 C 90 % 1024,2 hPa 0,0 l/m 0 min 0 min 80 W/m 32,2 km/h (5 Bft) 97,87 %
20.02.2023 12:46 7,6 C 7,2 C 4,4 C 89 % 1024,2 hPa 0,0 l/m 0 min 0 min 80 W/m 22,5 km/h (4 Bft) 97,87 %
20.02.2023 12:48 7,6 C 7,2 C 4,4 C 90 % 1024,2 hPa 0,0 l/m 0 min 0 min 79 W/m 19,3 km/h (3 Bft) 97,87 %
20.02.2023 12:50 7,6 C 7,2 C 4,4 C 90 % 1024,1 hPa 0,0 l/m 0 min 0 min 78 W/m 12,9 km/h (3 Bft) 97,87 %
20.02.2023 12:52 7,6 C 7,2 C 4,4 C 90 % 1024,1 hPa 0,0 l/m 0 min 0 min 85 W/m 12,9 km/h (3 Bft) 95,65 %
20.02.2023 12:54 7,6 C 7,2 C 4,4 C 90 % 1024,1 hPa 0,0 l/m 0 min 0 min 91 W/m 45,1 km/h (6 Bft) 95,74 %
20.02.2023 12:56 7,6 C 7,2 C 4,4 C 90 % 1023,9 hPa 0,0 l/m 0 min 0 min 95 W/m 25,7 km/h (4 Bft) 97,87 %
20.02.2023 12:58 7,6 C 7,2 C 4,4 C 90 % 1024,0 hPa 0,0 l/m 0 min 0 min 82 W/m 16,1 km/h (3 Bft) 97,87 %
20.02.2023 13:00 7,6 C 7,2 C 4,4 C 90 % 1024,0 hPa 0,0 l/m 0 min 0 min 87 W/m 16,1 km/h (3 Bft) 97,87 %
20.02.2023 13:02 7,6 C 7,2 C 4,4 C 90 % 1024,0 hPa 0,0 l/m 0 min 0 min 96 W/m 16,1 km/h (3 Bft) 97,87 %
20.02.2023 13:04 7,6 C 7,2 C 4,4 C 90 % 1024,0 hPa 0,0 l/m 0 min 0 min 83 W/m 19,3 km/h (3 Bft) 95,83 %
20.02.2023 13:06 7,6 C 7,2 C 4,4 C 90 % 1023,9 hPa 0,0 l/m 0 min 0 min 77 W/m 25,7 km/h (4 Bft) 96,55 %
20.02.2023 13:08 7,6 C 7,2 C 4,4 C 90 % 1023,9 hPa 0,0 l/m 0 min 0 min 79 W/m 22,5 km/h (4 Bft) 97,14 %
20.02.2023 13:10 7,6 C 7,2 C 4,4 C 90 % 1023,9 hPa 0,0 l/m 0 min 0 min 82 W/m 19,3 km/h (3 Bft) 100,00 %
20.02.2023 13:12 7,6 C 7,2 C 4,4 C 90 % 1024,0 hPa 0,0 l/m 0 min 0 min 77 W/m 19,3 km/h (3 Bft) 100,00 %
20.02.2023 13:14 7,6 C 7,2 C 4,4 C 90 % 1024,0 hPa 0,0 l/m 0 min 0 min 66 W/m 25,7 km/h (4 Bft) 97,87 %
20.02.2023 13:16 7,6 C 7,2 C 4,4 C 90 % 1023,9 hPa 0,0 l/m 0 min 0 min 77 W/m 19,3 km/h (3 Bft) 93,62 %
20.02.2023 13:18 7,6 C 7,2 C 4,4 C 90 % 1023,9 hPa 0,0 l/m 0 min 0 min 81 W/m 22,5 km/h (4 Bft) 95,65 %
20.02.2023 13:20 7,6 C 7,2 C 4,4 C 90 % 1023,9 hPa 0,0 l/m 0 min 0 min 73 W/m 19,3 km/h (3 Bft) 97,87 %
20.02.2023 13:22 7,6 C 7,2 C 4,4 C 90 % 1024,0 hPa 0,0 l/m 0 min 0 min 69 W/m 19,3 km/h (3 Bft) 97,87 %
20.02.2023 13:24 7,6 C 7,2 C 4,4 C 90 % 1024,0 hPa 0,0 l/m 0 min 0 min 72 W/m 12,9 km/h (3 Bft) 97,87 %
20.02.2023 13:26 7,6 C 7,2 C 4,4 C 90 % 1023,8 hPa 0,0 l/m 0 min 0 min 75 W/m 22,5 km/h (4 Bft) 95,74 %
20.02.2023 13:28 7,7 C 7,2 C 4,4 C 90 % 1023,8 hPa 0,0 l/m 0 min 0 min 73 W/m 19,3 km/h (3 Bft) 97,87 %
20.02.2023 13:30 7,7 C 7,2 C 4,4 C 90 % 1023,8 hPa 0,0 l/m 0 min 0 min 71 W/m 19,3 km/h (3 Bft) 97,87 %
20.02.2023 13:32 7,6 C 7,2 C 4,4 C 90 % 1023,9 hPa 0,0 l/m 0 min 0 min 63 W/m 16,1 km/h (3 Bft) 97,83 %
20.02.2023 13:34 7,7 C 7,2 C 4,4 C 90 % 1023,9 hPa 0,0 l/m 0 min 0 min 62 W/m 12,9 km/h (3 Bft) 97,87 %
20.02.2023 13:36 7,7 C 7,2 C 4,4 C 90 % 1024,0 hPa 0,0 l/m 0 min 0 min 61 W/m 19,3 km/h (3 Bft) 95,74 %
20.02.2023 13:38 7,7 C 7,2 C 4,4 C 90 % 1023,9 hPa 0,0 l/m 0 min 0 min 68 W/m 25,7 km/h (4 Bft) 93,62 %
20.02.2023 13:40 7,6 C 7,2 C 4,4 C 90 % 1023,6 hPa 0,0 l/m 0 min 0 min 70 W/m 22,5 km/h (4 Bft) 95,74 %
20.02.2023 13:42 7,6 C 7,2 C 4,4 C 90 % 1023,6 hPa 0,0 l/m 0 min 0 min 74 W/m 25,7 km/h (4 Bft) 95,74 %
20.02.2023 13:44 7,6 C 7,2 C 4,4 C 90 % 1023,7 hPa 0,0 l/m 0 min 0 min 75 W/m 19,3 km/h (3 Bft) 97,87 %
20.02.2023 13:46 7,7 C 7,2 C 4,4 C 90 % 1023,9 hPa 0,0 l/m 0 min 0 min 64 W/m 16,1 km/h (3 Bft) 97,83 %
20.02.2023 13:48 7,7 C 7,2 C 4,4 C 90 % 1023,9 hPa 0,0 l/m 0 min 0 min 55 W/m 19,3 km/h (3 Bft) 100,00 %
20.02.2023 13:50 7,7 C 7,2 C 4,4 C 90 % 1023,9 hPa 0,0 l/m 0 min 0 min 59 W/m 12,9 km/h (3 Bft) 100,00 %
20.02.2023 13:52 7,7 C 7,2 C 4,4 C 90 % 1023,7 hPa 0,0 l/m 0 min 0 min 67 W/m 19,3 km/h (3 Bft) 100,00 %
20.02.2023 13:54 7,7 C 7,2 C 4,4 C 90 % 1023,7 hPa 0,0 l/m 0 min 0 min 67 W/m 19,3 km/h (3 Bft) 100,00 %
20.02.2023 13:56 7,7 C 7,2 C 4,4 C 90 % 1023,7 hPa 0,0 l/m 0 min 0 min 77 W/m 22,5 km/h (4 Bft) 100,00 %
20.02.2023 13:58 7,7 C 7,2 C 4,4 C 90 % 1023,7 hPa 0,0 l/m 0 min 0 min 74 W/m 16,1 km/h (3 Bft) 100,00 %
20.02.2023 14:00 7,7 C 7,2 C 4,4 C 91 % 1023,7 hPa 0,0 l/m 0 min 0 min 73 W/m 16,1 km/h (3 Bft) 97,83 %
20.02.2023 14:02 7,7 C 7,2 C 4,4 C 91 % 1023,6 hPa 0,0 l/m 0 min 0 min 73 W/m 16,1 km/h (3 Bft) 100,00 %
20.02.2023 14:04 7,7 C 7,2 C 4,4 C 91 % 1023,6 hPa 0,0 l/m 0 min 0 min 75 W/m 16,1 km/h (3 Bft) 100,00 %
20.02.2023 14:06 7,7 C 7,2 C 4,4 C 91 % 1023,4 hPa 0,0 l/m 0 min 0 min 81 W/m 29,0 km/h (5 Bft) 100,00 %
20.02.2023 14:08 7,7 C 7,2 C 4,4 C 91 % 1023,3 hPa 0,0 l/m 0 min 0 min 90 W/m 22,5 km/h (4 Bft) 100,00 %
20.02.2023 14:10 7,7 C 7,2 C 4,4 C 91 % 1023,3 hPa 0,0 l/m 0 min 0 min 98 W/m 19,3 km/h (3 Bft) 100,00 %
20.02.2023 14:12 7,8 C 7,2 C 4,4 C 91 % 1023,3 hPa 0,0 l/m 0 min 0 min 101 W/m 25,7 km/h (4 Bft) 97,83 %
20.02.2023 14:14 7,7 C 7,2 C 4,4 C 91 % 1023,3 hPa 0,0 l/m 0 min 0 min 112 W/m 22,5 km/h (4 Bft) 100,00 %
20.02.2023 14:16 7,7 C 7,8 C 4,4 C 91 % 1023,3 hPa 0,0 l/m 0 min 0 min 100 W/m 19,3 km/h (3 Bft) 97,87 %
20.02.2023 14:18 7,8 C 7,2 C 4,4 C 91 % 1023,3 hPa 0,0 l/m 0 min 0 min 83 W/m 25,7 km/h (4 Bft) 97,87 %
20.02.2023 14:20 7,8 C 7,8 C 4,4 C 91 % 1023,1 hPa 0,0 l/m 0 min 0 min 87 W/m 22,5 km/h (4 Bft) 97,87 %
20.02.2023 14:22 7,8 C 7,8 C 4,4 C 91 % 1023,0 hPa 0,0 l/m 0 min 0 min 92 W/m 19,3 km/h (3 Bft) 100,00 %
20.02.2023 14:24 7,8 C 7,8 C 4,4 C 91 % 1022,8 hPa 0,0 l/m 0 min 0 min 89 W/m 25,7 km/h (4 Bft) 100,00 %
20.02.2023 14:26 7,8 C 7,2 C 4,4 C 91 % 1022,9 hPa 0,0 l/m 0 min 0 min 91 W/m 19,3 km/h (3 Bft) 97,87 %
20.02.2023 14:28 7,8 C 7,8 C 4,4 C 91 % 1022,9 hPa 0,0 l/m 0 min 0 min 84 W/m 12,9 km/h (3 Bft) 100,00 %
20.02.2023 14:30 7,8 C 7,8 C 4,4 C 91 % 1022,8 hPa 0,0 l/m 0 min 0 min 80 W/m 19,3 km/h (3 Bft) 100,00 %
20.02.2023 14:32 7,8 C 7,8 C 4,4 C 91 % 1022,8 hPa 0,0 l/m 0 min 0 min 82 W/m 29,0 km/h (5 Bft) 100,00 %
20.02.2023 14:34 7,8 C 7,8 C 4,4 C 91 % 1022,6 hPa 0,0 l/m 0 min 0 min 92 W/m 16,1 km/h (3 Bft) 97,87 %
20.02.2023 14:36 7,8 C 7,8 C 4,4 C 91 % 1022,6 hPa 0,0 l/m 0 min 0 min 98 W/m 32,2 km/h (5 Bft) 95,65 %
20.02.2023 14:38 7,8 C 7,8 C 4,4 C 91 % 1022,4 hPa 0,0 l/m 0 min 0 min 89 W/m 25,7 km/h (4 Bft) 97,87 %
20.02.2023 14:40 7,8 C 7,8 C 4,4 C 91 % 1022,2 hPa 0,0 l/m 0 min 0 min 97 W/m 35,4 km/h (5 Bft) 97,87 %
20.02.2023 14:42 7,8 C 7,8 C 4,4 C 91 % 1022,3 hPa 0,0 l/m 0 min 0 min 94 W/m 25,7 km/h (4 Bft) 97,87 %
20.02.2023 14:44 7,9 C 7,8 C 4,4 C 91 % 1022,5 hPa 0,0 l/m 0 min 0 min 86 W/m 32,2 km/h (5 Bft) 97,87 %
20.02.2023 14:46 7,9 C 7,8 C 4,4 C 91 % 1022,5 hPa 0,0 l/m 0 min 0 min 88 W/m 25,7 km/h (4 Bft) 97,87 %
20.02.2023 14:48 7,9 C 7,8 C 4,4 C 91 % 1022,4 hPa 0,0 l/m 0 min 0 min 93 W/m 32,2 km/h (5 Bft) 95,74 %
20.02.2023 14:50 7,9 C 7,8 C 4,4 C 91 % 1022,4 hPa 0,0 l/m 0 min 0 min 82 W/m 25,7 km/h (4 Bft) 95,65 %
20.02.2023 14:52 7,9 C 7,8 C 5,0 C 91 % 1022,4 hPa 0,0 l/m 0 min 0 min 85 W/m 12,9 km/h (3 Bft) 97,87 %
20.02.2023 14:54 7,9 C 7,8 C 5,0 C 91 % 1022,5 hPa 0,0 l/m 0 min 0 min 73 W/m 12,9 km/h (3 Bft) 95,74 %
20.02.2023 14:56 7,9 C 7,8 C 5,0 C 91 % 1022,5 hPa 0,0 l/m 0 min 0 min 70 W/m 12,9 km/h (3 Bft) 97,87 %
20.02.2023 14:58 7,9 C 7,8 C 5,0 C 91 % 1022,5 hPa 0,0 l/m 0 min 0 min 61 W/m 25,7 km/h (4 Bft) 97,87 %
20.02.2023 15:00 7,9 C 7,8 C 4,4 C 91 % 1022,5 hPa 0,0 l/m 0 min 0 min 55 W/m 25,7 km/h (4 Bft) 95,74 %
20.02.2023 15:02 7,9 C 7,8 C 4,4 C 91 % 1022,6 hPa 0,0 l/m 0 min 0 min 54 W/m 12,9 km/h (3 Bft) 93,48 %
20.02.2023 15:04 7,9 C 7,2 C 4,4 C 91 % 1022,6 hPa 0,0 l/m 0 min 0 min 53 W/m 16,1 km/h (3 Bft) 96,00 %
20.02.2023 15:06 7,9 C 7,2 C 4,4 C 91 % 1022,4 hPa 0,0 l/m 0 min 0 min 49 W/m 16,1 km/h (3 Bft) 95,74 %
20.02.2023 15:08 7,9 C 7,2 C 4,4 C 91 % 1022,2 hPa 0,0 l/m 0 min 0 min 62 W/m 19,3 km/h (3 Bft) 91,49 %
20.02.2023 15:10 7,9 C 7,8 C 4,4 C 91 % 1022,2 hPa 0,0 l/m 0 min 0 min 66 W/m 16,1 km/h (3 Bft) 93,62 %
20.02.2023 15:12 7,9 C 7,8 C 4,4 C 91 % 1022,3 hPa 0,0 l/m 0 min 0 min 61 W/m 19,3 km/h (3 Bft) 95,74 %
20.02.2023 15:14 7,9 C 7,8 C 4,4 C 91 % 1022,3 hPa 0,0 l/m 0 min 0 min 54 W/m 12,9 km/h (3 Bft) 93,48 %
20.02.2023 15:16 7,9 C 7,8 C 4,4 C 91 % 1022,4 hPa 0,0 l/m 0 min 0 min 52 W/m 16,1 km/h (3 Bft) 93,62 %
20.02.2023 15:18 8,0 C 7,8 C 4,4 C 91 % 1022,4 hPa 0,0 l/m 0 min 0 min 55 W/m 19,3 km/h (3 Bft) 89,36 %
20.02.2023 15:20 8,0 C 7,8 C 4,4 C 91 % 1022,3 hPa 0,0 l/m 0 min 0 min 50 W/m 19,3 km/h (3 Bft) 93,62 %
20.02.2023 15:22 7,9 C 7,8 C 4,4 C 91 % 1022,3 hPa 0,0 l/m 0 min 0 min 42 W/m 19,3 km/h (3 Bft) 95,74 %
20.02.2023 15:24 8,0 C 7,8 C 4,4 C 91 % 1022,2 hPa 0,0 l/m 0 min 0 min 46 W/m 16,1 km/h (3 Bft) 95,74 %
20.02.2023 15:26 7,9 C 7,8 C 4,4 C 91 % 1022,2 hPa 0,0 l/m 0 min 0 min 51 W/m 19,3 km/h (3 Bft) 93,48 %
20.02.2023 15:28 7,9 C 7,2 C 4,4 C 91 % 1022,2 hPa 0,0 l/m 0 min 0 min 49 W/m 16,1 km/h (3 Bft) 93,62 %
20.02.2023 15:30 7,9 C 7,2 C 4,4 C 91 % 1022,4 hPa 0,0 l/m 0 min 0 min 47 W/m 19,3 km/h (3 Bft) 94,44 %
20.02.2023 15:32 7,9 C 7,2 C 4,4 C 91 % 1022,5 hPa 0,0 l/m 0 min 0 min 39 W/m 22,5 km/h (4 Bft) 95,65 %
20.02.2023 15:34 7,9 C 7,2 C 4,4 C 91 % 1022,5 hPa 0,0 l/m 0 min 0 min 36 W/m 12,9 km/h (3 Bft) 95,74 %
20.02.2023 15:36 7,9 C 7,2 C 4,4 C 91 % 1022,5 hPa 0,0 l/m 0 min 0 min 34 W/m 25,7 km/h (4 Bft) 95,74 %
20.02.2023 15:38 7,9 C 7,2 C 4,4 C 91 % 1022,5 hPa 0,0 l/m 0 min 0 min 35 W/m 19,3 km/h (3 Bft) 95,74 %
20.02.2023 15:40 7,9 C 7,2 C 4,4 C 91 % 1022,6 hPa 0,0 l/m 0 min 0 min 33 W/m 16,1 km/h (3 Bft) 97,87 %
20.02.2023 15:42 7,9 C 7,2 C 4,4 C 91 % 1022,5 hPa 0,0 l/m 0 min 0 min 29 W/m 22,5 km/h (4 Bft) 95,65 %
20.02.2023 15:44 7,9 C 7,2 C 4,4 C 91 % 1022,5 hPa 0,0 l/m 0 min 0 min 28 W/m 22,5 km/h (4 Bft) 94,64 %
20.02.2023 15:46 7,9 C 7,2 C 4,4 C 91 % 1022,4 hPa 0,0 l/m 0 min 0 min 29 W/m 12,9 km/h (3 Bft) 93,88 %
20.02.2023 15:48 7,9 C 7,2 C 4,4 C 91 % 1022,4 hPa 0,0 l/m 0 min 0 min 33 W/m 12,9 km/h (3 Bft) 97,87 %
20.02.2023 15:50 7,9 C 7,2 C 4,4 C 91 % 1022,4 hPa 0,0 l/m 0 min 0 min 35 W/m 19,3 km/h (3 Bft) 97,87 %
20.02.2023 15:52 7,9 C 7,2 C 4,4 C 91 % 1022,4 hPa 0,0 l/m 0 min 0 min 32 W/m 12,9 km/h (3 Bft) 100,00 %
20.02.2023 15:54 7,9 C 7,2 C 4,4 C 92 % 1022,4 hPa 0,0 l/m 0 min 0 min 29 W/m 19,3 km/h (3 Bft) 97,87 %
20.02.2023 15:56 7,9 C 7,2 C 4,4 C 91 % 1022,4 hPa 0,0 l/m 0 min 0 min 28 W/m 12,9 km/h (3 Bft) 97,87 %
20.02.2023 15:58 7,9 C 7,2 C 4,4 C 92 % 1022,4 hPa 0,0 l/m 0 min 0 min 25 W/m 19,3 km/h (3 Bft) 97,83 %
20.02.2023 16:03 8,0 C 7,2 C 4,4 C 92 % 1022,4 hPa 0,0 l/m 0 min 0 min 27 W/m 19,3 km/h (3 Bft) 97,06 %
20.02.2023 16:04 8,0 C 7,2 C 4,4 C 92 % 1022,4 hPa 0,0 l/m 0 min 0 min 22 W/m 16,1 km/h (3 Bft) 100,00 %
20.02.2023 16:06 7,9 C 7,2 C 4,4 C 92 % 1022,3 hPa 0,0 l/m 0 min 0 min 25 W/m 22,5 km/h (4 Bft) 93,62 %
20.02.2023 16:08 8,0 C 7,2 C 4,4 C 92 % 1022,3 hPa 0,0 l/m 0 min 0 min 26 W/m 6,4 km/h (2 Bft) 100,00 %
20.02.2023 16:10 8,0 C 7,2 C 4,4 C 92 % 1022,3 hPa 0,0 l/m 0 min 0 min 27 W/m 16,1 km/h (3 Bft) 97,87 %
20.02.2023 16:12 8,0 C 7,2 C 4,4 C 92 % 1022,3 hPa 0,0 l/m 0 min 0 min 27 W/m 12,9 km/h (3 Bft) 93,48 %
20.02.2023 16:14 8,0 C 7,2 C 4,4 C 92 % 1022,4 hPa 0,0 l/m 0 min 0 min 24 W/m 25,7 km/h (4 Bft) 100,00 %
20.02.2023 16:16 8,0 C 7,2 C 4,4 C 92 % 1022,3 hPa 0,0 l/m 0 min 0 min 21 W/m 12,9 km/h (3 Bft) 100,00 %
20.02.2023 16:18 8,0 C 7,2 C 4,4 C 92 % 1022,3 hPa 0,0 l/m 0 min 0 min 21 W/m 19,3 km/h (3 Bft) 97,87 %
20.02.2023 16:20 8,0 C 7,2 C 4,4 C 92 % 1022,2 hPa 0,0 l/m 0 min 0 min 22 W/m 9,7 km/h (2 Bft) 100,00 %
20.02.2023 16:22 8,0 C 7,2 C 4,4 C 92 % 1022,2 hPa 0,0 l/m 0 min 0 min 21 W/m 16,1 km/h (3 Bft) 97,87 %
20.02.2023 16:24 8,0 C 7,2 C 4,4 C 92 % 1022,1 hPa 0,0 l/m 0 min 0 min 22 W/m 12,9 km/h (3 Bft) 97,83 %
20.02.2023 16:26 8,0 C 7,2 C 4,4 C 92 % 1022,2 hPa 0,0 l/m 0 min 0 min 25 W/m 19,3 km/h (3 Bft) 100,00 %
20.02.2023 16:28 8,0 C 7,2 C 4,4 C 92 % 1022,3 hPa 0,0 l/m 0 min 0 min 23 W/m 9,7 km/h (2 Bft) 100,00 %
20.02.2023 16:30 8,1 C 7,2 C 4,4 C 92 % 1022,3 hPa 0,0 l/m 0 min 0 min 23 W/m 12,9 km/h (3 Bft) 97,87 %
20.02.2023 16:32 8,1 C 7,8 C 4,4 C 92 % 1022,3 hPa 0,0 l/m 0 min 0 min 23 W/m 16,1 km/h (3 Bft) 97,87 %
20.02.2023 16:34 8,1 C 7,8 C 4,4 C 92 % 1022,3 hPa 0,0 l/m 0 min 0 min 21 W/m 16,1 km/h (3 Bft) 100,00 %
20.02.2023 16:36 8,1 C 7,8 C 4,4 C 92 % 1022,3 hPa 0,0 l/m 0 min 0 min 19 W/m 12,9 km/h (3 Bft) 97,87 %
20.02.2023 16:38 8,1 C 7,8 C 4,4 C 92 % 1022,2 hPa 0,0 l/m 0 min 0 min 20 W/m 12,9 km/h (3 Bft) 100,00 %
20.02.2023 16:40 8,1 C 7,8 C 4,4 C 92 % 1022,2 hPa 0,0 l/m 0 min 0 min 20 W/m 16,1 km/h (3 Bft) 97,87 %
20.02.2023 16:42 8,1 C 7,8 C 4,4 C 91 % 1022,2 hPa 0,0 l/m 0 min 0 min 19 W/m 32,2 km/h (5 Bft) 97,87 %
20.02.2023 16:44 8,1 C 7,8 C 4,4 C 91 % 1022,2 hPa 0,0 l/m 0 min 0 min 19 W/m 12,9 km/h (3 Bft) 97,87 %
20.02.2023 16:46 8,1 C 7,8 C 4,4 C 91 % 1022,2 hPa 0,0 l/m 0 min 0 min 19 W/m 9,7 km/h (2 Bft) 100,00 %
20.02.2023 16:48 8,1 C 7,8 C 4,4 C 91 % 1022,2 hPa 0,0 l/m 0 min 0 min 19 W/m 16,1 km/h (3 Bft) 97,87 %
20.02.2023 16:50 8,1 C 7,8 C 4,4 C 91 % 1022,2 hPa 0,0 l/m 0 min 0 min 18 W/m 16,1 km/h (3 Bft) 100,00 %
20.02.2023 16:52 8,1 C 7,8 C 4,4 C 91 % 1022,2 hPa 0,0 l/m 0 min 0 min 17 W/m 12,9 km/h (3 Bft) 100,00 %
20.02.2023 16:54 8,1 C 7,8 C 4,4 C 91 % 1022,2 hPa 0,0 l/m 0 min 0 min 16 W/m 12,9 km/h (3 Bft) 97,87 %
20.02.2023 16:56 8,1 C 7,8 C 4,4 C 91 % 1022,2 hPa 0,0 l/m 0 min 0 min 16 W/m 12,9 km/h (3 Bft) 97,87 %
20.02.2023 16:58 8,1 C 7,8 C 4,4 C 91 % 1022,2 hPa 0,0 l/m 0 min 0 min 16 W/m 12,9 km/h (3 Bft) 100,00 %
20.02.2023 17:00 8,2 C 7,8 C 4,4 C 91 % 1022,2 hPa 0,0 l/m 0 min 0 min 15 W/m 16,1 km/h (3 Bft) 97,87 %
20.02.2023 17:02 8,2 C 7,8 C 4,4 C 91 % 1022,2 hPa 0,0 l/m 0 min 0 min 13 W/m 12,9 km/h (3 Bft) 100,00 %
20.02.2023 17:04 8,2 C 7,8 C 4,4 C 91 % 1022,0 hPa 0,0 l/m 0 min 0 min 14 W/m 29,0 km/h (5 Bft) 97,56 %
20.02.2023 17:06 8,2 C 7,8 C 4,4 C 91 % 1022,1 hPa 0,0 l/m 0 min 0 min 18 W/m 16,1 km/h (3 Bft) 94,92 %
20.02.2023 17:08 8,2 C 7,8 C 4,4 C 91 % 1022,1 hPa 0,0 l/m 0 min 0 min 20 W/m 12,9 km/h (3 Bft) 100,00 %
20.02.2023 17:10 8,2 C 7,8 C 5,0 C 91 % 1022,2 hPa 0,0 l/m 0 min 0 min 14 W/m 16,1 km/h (3 Bft) 100,00 %
20.02.2023 17:12 8,2 C 7,8 C 5,0 C 91 % 1022,2 hPa 0,0 l/m 0 min 0 min 12 W/m 12,9 km/h (3 Bft) 91,49 %
20.02.2023 17:14 8,2 C 7,8 C 5,0 C 91 % 1022,2 hPa 0,0 l/m 0 min 0 min 10 W/m 16,1 km/h (3 Bft) 97,83 %
20.02.2023 17:16 8,2 C 7,8 C 5,0 C 91 % 1022,1 hPa 0,0 l/m 0 min 0 min 8 W/m 12,9 km/h (3 Bft) 95,74 %
20.02.2023 17:18 8,2 C 7,8 C 5,0 C 91 % 1022,1 hPa 0,0 l/m 0 min 0 min 8 W/m 12,9 km/h (3 Bft) 95,74 %
20.02.2023 17:20 8,2 C 7,8 C 5,0 C 91 % 1022,1 hPa 0,0 l/m 0 min 0 min 9 W/m 12,9 km/h (3 Bft) 95,74 %
20.02.2023 17:22 8,2 C 7,8 C 5,0 C 91 % 1022,0 hPa 0,0 l/m 0 min 0 min 9 W/m 16,1 km/h (3 Bft) 95,74 %
20.02.2023 17:24 8,2 C 7,8 C 5,0 C 91 % 1022,1 hPa 0,0 l/m 0 min 0 min 9 W/m 12,9 km/h (3 Bft) 95,74 %
20.02.2023 17:26 8,2 C 7,8 C 5,0 C 91 % 1022,2 hPa 0,0 l/m 0 min 0 min 9 W/m 9,7 km/h (2 Bft) 93,48 %
20.02.2023 17:28 8,2 C 7,8 C 5,0 C 91 % 1022,2 hPa 0,0 l/m 0 min 0 min 7 W/m 12,9 km/h (3 Bft) 95,74 %
20.02.2023 17:30 8,2 C 7,8 C 5,0 C 91 % 1022,2 hPa 0,0 l/m 0 min 0 min 6 W/m 16,1 km/h (3 Bft) 95,74 %
20.02.2023 17:32 8,2 C 7,8 C 5,0 C 91 % 1022,2 hPa 0,0 l/m 0 min 0 min 5 W/m 6,4 km/h (2 Bft) 95,74 %
20.02.2023 17:34 8,2 C 7,8 C 4,4 C 91 % 1022,2 hPa 0,0 l/m 0 min 0 min 5 W/m 6,4 km/h (2 Bft) 95,74 %
20.02.2023 17:36 8,2 C 7,8 C 4,4 C 91 % 1022,2 hPa 0,0 l/m 0 min 0 min 5 W/m 12,9 km/h (3 Bft) 95,74 %
20.02.2023 17:38 8,2 C 7,8 C 4,4 C 91 % 1022,1 hPa 0,0 l/m 0 min 0 min 0 W/m 22,5 km/h (4 Bft) 95,65 %
20.02.2023 17:40 8,2 C 7,8 C 4,4 C 91 % 1022,1 hPa 0,0 l/m 0 min 0 min 0 W/m 12,9 km/h (3 Bft) 95,74 %
20.02.2023 17:42 8,2 C 7,8 C 4,4 C 91 % 1022,2 hPa 0,0 l/m 0 min 0 min 0 W/m 6,4 km/h (2 Bft) 95,74 %
20.02.2023 17:44 8,2 C 7,8 C 4,4 C 91 % 1022,2 hPa 0,0 l/m 0 min 0 min 0 W/m 9,7 km/h (2 Bft) 97,87 %
20.02.2023 17:46 8,2 C 7,8 C 4,4 C 91 % 1022,2 hPa 0,0 l/m 0 min 0 min 0 W/m 12,9 km/h (3 Bft) 100,00 %
20.02.2023 17:48 8,2 C 7,8 C 4,4 C 91 % 1022,3 hPa 0,0 l/m 0 min 0 min 0 W/m 9,7 km/h (2 Bft) 97,87 %
20.02.2023 17:50 8,2 C 7,8 C 4,4 C 91 % 1022,3 hPa 0,0 l/m 0 min 0 min 0 W/m 16,1 km/h (3 Bft) 95,74 %
20.02.2023 17:52 8,3 C 7,8 C 5,0 C 91 % 1022,2 hPa 0,0 l/m 0 min 0 min 0 W/m 16,1 km/h (3 Bft) 97,83 %
20.02.2023 17:54 8,3 C 7,8 C 5,0 C 91 % 1022,1 hPa 0,0 l/m 0 min 0 min 0 W/m 12,9 km/h (3 Bft) 95,74 %
20.02.2023 17:56 8,3 C 7,8 C 5,0 C 91 % 1022,1 hPa 0,0 l/m 0 min 0 min 0 W/m 19,3 km/h (3 Bft) 95,74 %
20.02.2023 17:58 8,3 C 7,8 C 5,0 C 91 % 1022,1 hPa 0,0 l/m 0 min 0 min 0 W/m 12,9 km/h (3 Bft) 95,74 %
20.02.2023 18:00 8,3 C 7,8 C 5,0 C 91 % 1022,2 hPa 0,0 l/m 0 min 0 min 0 W/m 9,7 km/h (2 Bft) 95,74 %
20.02.2023 18:02 8,3 C 7,8 C 5,0 C 91 % 1022,2 hPa 0,0 l/m 0 min 0 min 0 W/m 9,7 km/h (2 Bft) 93,62 %
20.02.2023 18:04 8,3 C 7,8 C 4,4 C 91 % 1022,1 hPa 0,0 l/m 0 min 0 min 0 W/m 9,7 km/h (2 Bft) 95,74 %
20.02.2023 18:07 8,3 C 7,8 C 4,4 C 91 % 1022,2 hPa 0,0 l/m 0 min 0 min 0 W/m 16,1 km/h (3 Bft) 96,10 %
20.02.2023 18:08 8,3 C 7,8 C 4,4 C 91 % 1022,2 hPa 0,0 l/m 0 min 0 min 0 W/m 9,7 km/h (2 Bft) 95,65 %
20.02.2023 18:12 8,3 C 7,8 C 4,4 C 91 % 1022,1 hPa 0,0 l/m 0 min 0 min 0 W/m 16,1 km/h (3 Bft) 98,00 %
20.02.2023 18:14 8,3 C 7,8 C 4,4 C 91 % 1022,1 hPa 0,0 l/m 0 min 0 min 0 W/m 12,9 km/h (3 Bft) 97,87 %
20.02.2023 18:16 8,2 C 7,8 C 4,4 C 91 % 1022,1 hPa 0,0 l/m 0 min 0 min 0 W/m 12,9 km/h (3 Bft) 95,74 %
20.02.2023 18:18 8,2 C 7,8 C 4,4 C 91 % 1022,1 hPa 0,0 l/m 0 min 0 min 0 W/m 12,9 km/h (3 Bft) 97,83 %
20.02.2023 18:20 8,2 C 7,8 C 4,4 C 91 % 1022,1 hPa 0,0 l/m 0 min 0 min 0 W/m 12,9 km/h (3 Bft) 95,74 %
20.02.2023 18:22 8,2 C 7,8 C 4,4 C 91 % 1022,1 hPa 0,0 l/m 0 min 0 min 0 W/m 12,9 km/h (3 Bft) 95,74 %
20.02.2023 18:24 8,2 C 7,8 C 4,4 C 91 % 1022,2 hPa 0,0 l/m 0 min 0 min 0 W/m 12,9 km/h (3 Bft) 100,00 %
20.02.2023 18:26 8,2 C 7,8 C 4,4 C 91 % 1022,2 hPa 0,0 l/m 0 min 0 min 0 W/m 9,7 km/h (2 Bft) 52,38 %
20.02.2023 18:28 8,3 C 7,8 C 4,4 C 91 % 1022,3 hPa 0,0 l/m 0 min 0 min 0 W/m 12,9 km/h (3 Bft) 97,87 %
20.02.2023 18:30 8,3 C 7,8 C 4,4 C 91 % 1022,2 hPa 0,0 l/m 0 min 0 min 0 W/m 9,7 km/h (2 Bft) 97,87 %
20.02.2023 18:32 8,3 C 7,8 C 4,4 C 91 % 1022,2 hPa 0,0 l/m 0 min 0 min 0 W/m 19,3 km/h (3 Bft) 97,83 %
20.02.2023 18:34 8,3 C 7,8 C 4,4 C 91 % 1022,2 hPa 0,0 l/m 0 min 0 min 0 W/m 6,4 km/h (2 Bft) 97,87 %
20.02.2023 18:36 8,3 C 7,8 C 4,4 C 91 % 1022,3 hPa 0,0 l/m 0 min 0 min 0 W/m 16,1 km/h (3 Bft) 95,74 %
20.02.2023 18:38 8,3 C 7,8 C 4,4 C 91 % 1022,4 hPa 0,0 l/m 0 min 0 min 0 W/m 16,1 km/h (3 Bft) 96,08 %
20.02.2023 18:40 8,3 C 7,8 C 4,4 C 91 % 1022,4 hPa 0,0 l/m 0 min 0 min 0 W/m 12,9 km/h (3 Bft) 97,83 %
20.02.2023 18:42 8,3 C 7,8 C 4,4 C 91 % 1022,4 hPa 0,0 l/m 0 min 0 min 0 W/m 12,9 km/h (3 Bft) 100,00 %
20.02.2023 18:44 8,3 C 7,8 C 4,4 C 91 % 1022,4 hPa 0,0 l/m 0 min 0 min 0 W/m 9,7 km/h (2 Bft) 100,00 %
20.02.2023 18:46 8,3 C 7,8 C 4,4 C 91 % 1022,3 hPa 0,0 l/m 0 min 0 min 0 W/m 12,9 km/h (3 Bft) 100,00 %
20.02.2023 18:48 8,3 C 7,8 C 4,4 C 91 % 1022,4 hPa 0,0 l/m 0 min 0 min 0 W/m 19,3 km/h (3 Bft) 97,87 %
20.02.2023 18:50 8,3 C 7,8 C 5,0 C 91 % 1022,4 hPa 0,0 l/m 0 min 0 min 0 W/m 12,9 km/h (3 Bft) 100,00 %
20.02.2023 18:52 8,3 C 7,8 C 5,0 C 91 % 1022,5 hPa 0,0 l/m 0 min 0 min 0 W/m 12,9 km/h (3 Bft) 100,00 %
20.02.2023 18:54 8,3 C 7,8 C 5,0 C 91 % 1022,6 hPa 0,0 l/m 0 min 0 min 0 W/m 12,9 km/h (3 Bft) 100,00 %
20.02.2023 18:56 8,3 C 7,8 C 5,0 C 91 % 1022,5 hPa 0,0 l/m 0 min 0 min 0 W/m 16,1 km/h (3 Bft) 95,65 %
20.02.2023 18:58 8,3 C 7,8 C 4,4 C 91 % 1022,5 hPa 0,0 l/m 0 min 0 min 0 W/m 9,7 km/h (2 Bft) 100,00 %
20.02.2023 19:00 8,3 C 7,8 C 4,4 C 91 % 1022,5 hPa 0,0 l/m 0 min 0 min 0 W/m 12,9 km/h (3 Bft) 95,74 %
20.02.2023 19:02 8,3 C 7,8 C 4,4 C 91 % 1022,5 hPa 0,0 l/m 0 min 0 min 0 W/m 12,9 km/h (3 Bft) 100,00 %
20.02.2023 19:04 8,3 C 7,8 C 4,4 C 91 % 1022,5 hPa 0,0 l/m 0 min 0 min 0 W/m 19,3 km/h (3 Bft) 100,00 %
20.02.2023 19:06 8,3 C 7,8 C 5,0 C 91 % 1022,6 hPa 0,0 l/m 0 min 0 min 0 W/m 12,9 km/h (3 Bft) 97,87 %
20.02.2023 19:08 8,3 C 7,8 C 4,4 C 91 % 1022,5 hPa 0,0 l/m 0 min 0 min 0 W/m 6,4 km/h (2 Bft) 95,74 %
20.02.2023 19:10 8,3 C 7,8 C 4,4 C 91 % 1022,5 hPa 0,0 l/m 0 min 0 min 0 W/m 12,9 km/h (3 Bft) 97,83 %
20.02.2023 19:12 8,3 C 7,8 C 5,0 C 91 % 1022,4 hPa 0,0 l/m 0 min 0 min 0 W/m 6,4 km/h (2 Bft) 95,74 %
20.02.2023 19:14 8,3 C 7,8 C 4,4 C 91 % 1022,5 hPa 0,0 l/m 0 min 0 min 0 W/m 12,9 km/h (3 Bft) 97,87 %
20.02.2023 19:16 8,3 C 7,8 C 4,4 C 91 % 1022,4 hPa 0,0 l/m 0 min 0 min 0 W/m 6,4 km/h (2 Bft) 95,74 %
20.02.2023 19:18 8,3 C 7,8 C 4,4 C 91 % 1022,3 hPa 0,0 l/m 0 min 0 min 0 W/m 12,9 km/h (3 Bft) 97,87 %
20.02.2023 19:20 8,3 C 7,8 C 4,4 C 91 % 1022,3 hPa 0,0 l/m 0 min 0 min 0 W/m 12,9 km/h (3 Bft) 97,87 %
20.02.2023 19:22 8,3 C 7,8 C 4,4 C 92 % 1022,4 hPa 0,0 l/m 0 min 0 min 0 W/m 12,9 km/h (3 Bft) 97,83 %
20.02.2023 19:24 8,3 C 7,8 C 4,4 C 91 % 1022,4 hPa 0,0 l/m 0 min 0 min 0 W/m 9,7 km/h (2 Bft) 95,74 %
20.02.2023 19:26 8,3 C 7,8 C 4,4 C 92 % 1022,4 hPa 0,0 l/m 0 min 0 min 0 W/m 12,9 km/h (3 Bft) 97,87 %
20.02.2023 19:28 8,3 C 7,8 C 5,0 C 91 % 1022,4 hPa 0,0 l/m 0 min 0 min 0 W/m 12,9 km/h (3 Bft) 96,30 %
20.02.2023 19:30 8,3 C 7,8 C 5,0 C 91 % 1022,4 hPa 0,0 l/m 0 min 0 min 0 W/m 12,9 km/h (3 Bft) 97,87 %
20.02.2023 19:32 8,3 C 7,8 C 5,0 C 91 % 1022,4 hPa 0,0 l/m 0 min 0 min 0 W/m 12,9 km/h (3 Bft) 97,87 %
20.02.2023 19:34 8,3 C 7,8 C 5,0 C 91 % 1022,4 hPa 0,0 l/m 0 min 0 min 0 W/m 12,9 km/h (3 Bft) 97,87 %
20.02.2023 19:36 8,3 C 7,8 C 5,0 C 91 % 1022,3 hPa 0,0 l/m 0 min 0 min 0 W/m 9,7 km/h (2 Bft) 97,87 %
20.02.2023 19:38 8,3 C 7,8 C 4,4 C 91 % 1022,4 hPa 0,0 l/m 0 min 0 min 0 W/m 12,9 km/h (3 Bft) 100,00 %
20.02.2023 19:40 8,3 C 7,8 C 5,0 C 92 % 1022,5 hPa 0,0 l/m 0 min 0 min 0 W/m 16,1 km/h (3 Bft) 97,83 %
20.02.2023 19:42 8,3 C 7,8 C 5,0 C 92 % 1022,5 hPa 0,0 l/m 0 min 0 min 0 W/m 12,9 km/h (3 Bft) 100,00 %
20.02.2023 19:44 8,3 C 7,8 C 5,0 C 92 % 1022,5 hPa 0,0 l/m 0 min 0 min 0 W/m 12,9 km/h (3 Bft) 100,00 %
20.02.2023 19:46 8,3 C 7,8 C 5,0 C 92 % 1022,4 hPa 0,0 l/m 0 min 0 min 0 W/m 16,1 km/h (3 Bft) 100,00 %
20.02.2023 19:48 8,3 C 7,8 C 5,0 C 92 % 1022,4 hPa 0,0 l/m 0 min 0 min 0 W/m 19,3 km/h (3 Bft) 97,87 %
20.02.2023 19:50 8,3 C 7,8 C 5,0 C 92 % 1022,2 hPa 0,0 l/m 0 min 0 min 0 W/m 6,4 km/h (2 Bft) 97,37 %
20.02.2023 19:52 8,3 C 7,8 C 4,4 C 92 % 1022,2 hPa 0,0 l/m 0 min 0 min 0 W/m 12,9 km/h (3 Bft) 100,00 %
20.02.2023 19:54 8,3 C 7,8 C 4,4 C 92 % 1022,3 hPa 0,0 l/m 0 min 0 min 0 W/m 16,1 km/h (3 Bft) 100,00 %
20.02.2023 19:56 8,3 C 7,8 C 5,0 C 92 % 1022,3 hPa 0,0 l/m 0 min 0 min 0 W/m 9,7 km/h (2 Bft) 100,00 %
20.02.2023 19:58 8,3 C 7,8 C 5,0 C 92 % 1022,3 hPa 0,0 l/m 0 min 0 min 0 W/m 12,9 km/h (3 Bft) 97,87 %
20.02.2023 20:00 8,3 C 7,8 C 5,0 C 92 % 1022,2 hPa 0,0 l/m 0 min 0 min 0 W/m 16,1 km/h (3 Bft) 95,74 %
20.02.2023 20:02 8,3 C 7,8 C 5,0 C 92 % 1022,2 hPa 0,0 l/m 0 min 0 min 0 W/m 16,1 km/h (3 Bft) 95,65 %
20.02.2023 20:04 8,3 C 7,8 C 5,0 C 92 % 1022,2 hPa 0,0 l/m 0 min 0 min 0 W/m 12,9 km/h (3 Bft) 97,83 %
20.02.2023 20:06 8,3 C 7,8 C 5,0 C 92 % 1022,2 hPa 0,0 l/m 0 min 0 min 0 W/m 12,9 km/h (3 Bft) 96,61 %
20.02.2023 20:08 8,3 C 7,8 C 5,0 C 92 % 1022,2 hPa 0,0 l/m 0 min 0 min 0 W/m 12,9 km/h (3 Bft) 97,22 %
20.02.2023 20:10 8,3 C 7,8 C 5,0 C 92 % 1022,3 hPa 0,0 l/m 0 min 0 min 0 W/m 9,7 km/h (2 Bft) 93,48 %
20.02.2023 20:12 8,3 C 7,8 C 5,0 C 92 % 1022,3 hPa 0,0 l/m 0 min 0 min 0 W/m 12,9 km/h (3 Bft) 97,87 %
20.02.2023 20:14 8,3 C 7,8 C 5,0 C 92 % 1022,3 hPa 0,0 l/m 0 min 0 min 0 W/m 9,7 km/h (2 Bft) 98,00 %
20.02.2023 20:16 8,3 C 7,8 C 5,0 C 92 % 1022,2 hPa 0,0 l/m 0 min 0 min 0 W/m 19,3 km/h (3 Bft) 95,74 %
20.02.2023 20:18 8,3 C 7,8 C 5,0 C 92 % 1022,2 hPa 0,0 l/m 0 min 0 min 0 W/m 12,9 km/h (3 Bft) 97,87 %
20.02.2023 20:20 8,3 C 7,8 C 5,0 C 92 % 1022,2 hPa 0,0 l/m 0 min 0 min 0 W/m 19,3 km/h (3 Bft) 97,87 %
20.02.2023 20:22 8,3 C 7,8 C 5,0 C 92 % 1022,2 hPa 0,0 l/m 0 min 0 min 0 W/m 9,7 km/h (2 Bft) 95,74 %
20.02.2023 20:24 8,3 C 7,8 C 5,0 C 92 % 1022,1 hPa 0,0 l/m 0 min 0 min 0 W/m 16,1 km/h (3 Bft) 97,87 %
20.02.2023 20:26 8,3 C 7,8 C 5,0 C 92 % 1022,1 hPa 0,0 l/m 0 min 0 min 0 W/m 12,9 km/h (3 Bft) 97,87 %
20.02.2023 20:28 8,3 C 7,8 C 5,0 C 92 % 1022,2 hPa 0,0 l/m 0 min 0 min 0 W/m 12,9 km/h (3 Bft) 97,83 %
20.02.2023 20:30 8,3 C 7,8 C 5,0 C 92 % 1022,2 hPa 0,0 l/m 0 min 0 min 0 W/m 16,1 km/h (3 Bft) 95,74 %
20.02.2023 20:32 8,3 C 7,8 C 5,0 C 92 % 1022,2 hPa 0,0 l/m 0 min 0 min 0 W/m 16,1 km/h (3 Bft) 97,87 %
20.02.2023 20:34 8,3 C 7,8 C 5,0 C 92 % 1022,2 hPa 0,0 l/m 0 min 0 min 0 W/m 12,9 km/h (3 Bft) 97,87 %
20.02.2023 20:36 8,3 C 7,8 C 5,0 C 92 % 1022,2 hPa 0,0 l/m 0 min 0 min 0 W/m 16,1 km/h (3 Bft) 97,87 %
20.02.2023 20:38 8,3 C 7,8 C 5,0 C 92 % 1022,1 hPa 0,0 l/m 0 min 0 min 0 W/m 19,3 km/h (3 Bft) 97,87 %
20.02.2023 20:40 8,3 C 7,8 C 5,0 C 92 % 1022,1 hPa 0,0 l/m 0 min 0 min 0 W/m 16,1 km/h (3 Bft) 97,83 %
20.02.2023 20:42 8,4 C 7,8 C 5,0 C 92 % 1022,2 hPa 0,0 l/m 0 min 0 min 0 W/m 12,9 km/h (3 Bft) 97,87 %
20.02.2023 20:44 8,4 C 7,8 C 5,0 C 92 % 1022,2 hPa 0,0 l/m 0 min 0 min 0 W/m 12,9 km/h (3 Bft) 100,00 %
20.02.2023 20:46 8,4 C 7,8 C 5,0 C 92 % 1022,1 hPa 0,0 l/m 0 min 0 min 0 W/m 16,1 km/h (3 Bft) 97,92 %
20.02.2023 20:48 8,4 C 7,8 C 5,0 C 92 % 1022,1 hPa 0,0 l/m 0 min 0 min 0 W/m 12,9 km/h (3 Bft) 100,00 %
20.02.2023 20:50 8,4 C 7,8 C 5,0 C 92 % 1022,1 hPa 0,0 l/m 0 min 0 min 0 W/m 12,9 km/h (3 Bft) 95,74 %
20.02.2023 20:52 8,4 C 7,8 C 5,0 C 92 % 1022,0 hPa 0,0 l/m 0 min 0 min 0 W/m 12,9 km/h (3 Bft) 95,74 %
20.02.2023 20:54 8,4 C 7,8 C 5,0 C 92 % 1022,0 hPa 0,0 l/m 0 min 0 min 0 W/m 19,3 km/h (3 Bft) 97,83 %
20.02.2023 20:56 8,4 C 7,8 C 5,0 C 92 % 1022,0 hPa 0,0 l/m 0 min 0 min 0 W/m 6,4 km/h (2 Bft) 97,14 %
20.02.2023 20:58 8,4 C 7,8 C 5,0 C 92 % 1021,9 hPa 0,0 l/m 0 min 0 min 0 W/m 9,7 km/h (2 Bft) 96,30 %
20.02.2023 21:00 8,4 C 7,8 C 5,0 C 92 % 1022,0 hPa 0,0 l/m 0 min 0 min 0 W/m 16,1 km/h (3 Bft) 95,74 %
20.02.2023 21:02 8,4 C 7,8 C 5,0 C 92 % 1021,9 hPa 0,0 l/m 0 min 0 min 0 W/m 12,9 km/h (3 Bft) 95,65 %
20.02.2023 21:04 8,4 C 7,8 C 5,0 C 92 % 1021,9 hPa 0,0 l/m 0 min 0 min 0 W/m 16,1 km/h (3 Bft) 95,74 %
20.02.2023 21:06 8,4 C 7,8 C 5,0 C 92 % 1022,0 hPa 0,0 l/m 0 min 0 min 0 W/m 12,9 km/h (3 Bft) 96,61 %
20.02.2023 21:08 8,4 C 7,8 C 5,0 C 92 % 1022,0 hPa 0,0 l/m 0 min 0 min 0 W/m 12,9 km/h (3 Bft) 94,74 %
20.02.2023 21:10 8,4 C 7,8 C 5,0 C 92 % 1021,9 hPa 0,0 l/m 0 min 0 min 0 W/m 16,1 km/h (3 Bft) 95,74 %
20.02.2023 21:12 8,4 C 7,8 C 5,0 C 92 % 1021,9 hPa 0,0 l/m 0 min 0 min 0 W/m 25,7 km/h (4 Bft) 93,75 %
20.02.2023 21:14 8,4 C 7,8 C 5,0 C 92 % 1021,9 hPa 0,0 l/m 0 min 0 min 0 W/m 12,9 km/h (3 Bft) 95,83 %
20.02.2023 21:16 8,4 C 7,8 C 5,0 C 92 % 1021,9 hPa 0,0 l/m 0 min 0 min 0 W/m 12,9 km/h (3 Bft) 95,74 %
20.02.2023 21:18 8,4 C 7,8 C 5,0 C 92 % 1021,9 hPa 0,0 l/m 0 min 0 min 0 W/m 16,1 km/h (3 Bft) 95,12 %
20.02.2023 21:20 8,4 C 7,8 C 5,0 C 92 % 1021,9 hPa 0,0 l/m 0 min 0 min 0 W/m 19,3 km/h (3 Bft) 95,74 %
20.02.2023 21:22 8,4 C 7,8 C 5,0 C 92 % 1021,9 hPa 0,0 l/m 0 min 0 min 0 W/m 12,9 km/h (3 Bft) 94,00 %
20.02.2023 21:24 8,4 C 7,8 C 5,0 C 92 % 1022,0 hPa 0,0 l/m 0 min 0 min 0 W/m 19,3 km/h (3 Bft) 95,74 %
20.02.2023 21:26 8,4 C 7,8 C 5,0 C 92 % 1021,9 hPa 0,0 l/m 0 min 0 min 0 W/m 16,1 km/h (3 Bft) 95,92 %
20.02.2023 21:28 8,4 C 7,8 C 5,0 C 92 % 1022,0 hPa 0,0 l/m 0 min 0 min 0 W/m 12,9 km/h (3 Bft) 95,74 %
20.02.2023 21:30 8,4 C 7,8 C 5,0 C 92 % 1021,9 hPa 0,0 l/m 0 min 0 min 0 W/m 12,9 km/h (3 Bft) 32,26 %
20.02.2023 21:32 8,4 C 7,8 C 5,0 C 92 % 1021,9 hPa 0,0 l/m 0 min 0 min 0 W/m 19,3 km/h (3 Bft) 93,62 %
20.02.2023 21:34 8,4 C 7,8 C 5,0 C 92 % 1021,9 hPa 0,0 l/m 0 min 0 min 0 W/m 16,1 km/h (3 Bft) 97,83 %
20.02.2023 21:36 8,3 C 7,8 C 5,0 C 92 % 1021,9 hPa 0,0 l/m 0 min 0 min 0 W/m 12,9 km/h (3 Bft) 97,87 %
20.02.2023 21:38 8,3 C 7,8 C 5,0 C 92 % 1021,9 hPa 0,0 l/m 0 min 0 min 0 W/m 12,9 km/h (3 Bft) 97,87 %
20.02.2023 21:40 8,3 C 7,8 C 5,0 C 92 % 1021,9 hPa 0,0 l/m 0 min 0 min 0 W/m 25,7 km/h (4 Bft) 100,00 %
20.02.2023 21:42 8,3 C 7,8 C 5,0 C 92 % 1021,9 hPa 0,0 l/m 0 min 0 min 0 W/m 12,9 km/h (3 Bft) 97,87 %
20.02.2023 21:44 8,3 C 7,8 C 5,0 C 92 % 1021,9 hPa 0,0 l/m 0 min 0 min 0 W/m 19,3 km/h (3 Bft) 100,00 %
20.02.2023 21:46 8,3 C 7,8 C 5,0 C 92 % 1022,0 hPa 0,0 l/m 0 min 0 min 0 W/m 22,5 km/h (4 Bft) 97,83 %
20.02.2023 21:48 8,3 C 7,8 C 5,0 C 92 % 1021,9 hPa 0,0 l/m 0 min 0 min 0 W/m 19,3 km/h (3 Bft) 97,87 %
20.02.2023 21:50 8,3 C 7,8 C 5,0 C 92 % 1021,9 hPa 0,0 l/m 0 min 0 min 0 W/m 12,9 km/h (3 Bft) 97,87 %
20.02.2023 21:52 8,3 C 7,8 C 5,0 C 92 % 1021,9 hPa 0,0 l/m 0 min 0 min 0 W/m 6,4 km/h (2 Bft) 100,00 %
20.02.2023 21:54 8,3 C 7,8 C 5,0 C 92 % 1021,9 hPa 0,0 l/m 0 min 0 min 0 W/m 16,1 km/h (3 Bft) 97,87 %
20.02.2023 21:56 8,3 C 7,8 C 5,0 C 92 % 1021,9 hPa 0,0 l/m 0 min 0 min 0 W/m 22,5 km/h (4 Bft) 97,87 %
20.02.2023 21:58 8,3 C 7,8 C 5,0 C 92 % 1021,8 hPa 0,0 l/m 0 min 0 min 0 W/m 22,5 km/h (4 Bft) 100,00 %
20.02.2023 22:00 8,3 C 7,8 C 5,0 C 92 % 1021,8 hPa 0,0 l/m 0 min 0 min 0 W/m 12,9 km/h (3 Bft) 100,00 %
20.02.2023 22:02 8,3 C 7,8 C 5,0 C 92 % 1021,7 hPa 0,0 l/m 0 min 0 min 0 W/m 12,9 km/h (3 Bft) 97,83 %
20.02.2023 22:04 8,3 C 7,8 C 5,0 C 92 % 1021,8 hPa 0,0 l/m 0 min 0 min 0 W/m 16,1 km/h (3 Bft) 100,00 %
20.02.2023 22:06 8,2 C 7,8 C 5,0 C 93 % 1021,7 hPa 0,0 l/m 0 min 0 min 0 W/m 19,3 km/h (3 Bft) 100,00 %
20.02.2023 22:08 8,3 C 7,8 C 5,0 C 93 % 1021,7 hPa 0,0 l/m 0 min 0 min 0 W/m 12,9 km/h (3 Bft) 100,00 %
20.02.2023 22:10 8,2 C 7,8 C 4,4 C 93 % 1021,7 hPa 0,0 l/m 0 min 0 min 0 W/m 12,9 km/h (3 Bft) 100,00 %
20.02.2023 22:12 8,2 C 7,8 C 4,4 C 93 % 1021,7 hPa 0,0 l/m 0 min 0 min 0 W/m 16,1 km/h (3 Bft) 100,00 %
20.02.2023 22:14 8,2 C 7,8 C 4,4 C 93 % 1021,8 hPa 0,0 l/m 0 min 0 min 0 W/m 12,9 km/h (3 Bft) 97,83 %
20.02.2023 22:16 8,2 C 7,8 C 4,4 C 93 % 1021,9 hPa 0,0 l/m 0 min 0 min 0 W/m 19,3 km/h (3 Bft) 100,00 %
20.02.2023 22:18 8,2 C 7,8 C 4,4 C 93 % 1021,8 hPa 0,0 l/m 0 min 0 min 0 W/m 12,9 km/h (3 Bft) 100,00 %
20.02.2023 22:20 8,2 C 7,8 C 5,0 C 93 % 1021,7 hPa 0,0 l/m 0 min 0 min 0 W/m 12,9 km/h (3 Bft) 100,00 %
20.02.2023 22:22 8,2 C 7,8 C 5,0 C 93 % 1021,7 hPa 0,0 l/m 0 min 0 min 0 W/m 12,9 km/h (3 Bft) 100,00 %
20.02.2023 22:24 8,2 C 7,8 C 5,0 C 93 % 1021,7 hPa 0,0 l/m 0 min 0 min 0 W/m 6,4 km/h (2 Bft) 91,89 %
20.02.2023 22:26 8,2 C 7,8 C 5,0 C 93 % 1021,7 hPa 0,0 l/m 0 min 0 min 0 W/m 12,9 km/h (3 Bft) 100,00 %
20.02.2023 22:28 8,2 C 7,8 C 4,4 C 93 % 1021,8 hPa 0,0 l/m 0 min 0 min 0 W/m 12,9 km/h (3 Bft) 100,00 %
20.02.2023 22:30 8,2 C 7,8 C 4,4 C 93 % 1021,8 hPa 0,0 l/m 0 min 0 min 0 W/m 16,1 km/h (3 Bft) 100,00 %
20.02.2023 22:32 8,2 C 7,8 C 4,4 C 93 % 1021,8 hPa 0,0 l/m 0 min 0 min 0 W/m 12,9 km/h (3 Bft) 100,00 %
20.02.2023 22:34 8,2 C 7,8 C 4,4 C 93 % 1021,8 hPa 0,0 l/m 0 min 0 min 0 W/m 6,4 km/h (2 Bft) 97,87 %
20.02.2023 22:36 8,2 C 7,8 C 4,4 C 93 % 1021,8 hPa 0,0 l/m 0 min 0 min 0 W/m 22,5 km/h (4 Bft) 97,87 %
20.02.2023 22:38 8,2 C 7,8 C 4,4 C 93 % 1021,8 hPa 0,0 l/m 0 min 0 min 0 W/m 16,1 km/h (3 Bft) 97,87 %
20.02.2023 22:40 8,2 C 7,2 C 4,4 C 93 % 1021,8 hPa 0,0 l/m 0 min 0 min 0 W/m 12,9 km/h (3 Bft) 95,74 %
20.02.2023 22:42 8,2 C 7,2 C 4,4 C 93 % 1021,8 hPa 0,0 l/m 0 min 0 min 0 W/m 22,5 km/h (4 Bft) 95,74 %
20.02.2023 22:44 8,1 C 7,8 C 4,4 C 93 % 1021,7 hPa 0,0 l/m 0 min 0 min 0 W/m 22,5 km/h (4 Bft) 97,83 %
20.02.2023 22:46 8,1 C 7,2 C 4,4 C 93 % 1021,7 hPa 0,0 l/m 0 min 0 min 0 W/m 22,5 km/h (4 Bft) 97,92 %
20.02.2023 22:48 8,1 C 7,2 C 4,4 C 93 % 1021,6 hPa 0,0 l/m 0 min 0 min 0 W/m 19,3 km/h (3 Bft) 95,74 %
20.02.2023 22:50 8,1 C 7,2 C 4,4 C 93 % 1021,7 hPa 0,0 l/m 0 min 0 min 0 W/m 16,1 km/h (3 Bft) 95,74 %
20.02.2023 22:52 8,1 C 7,2 C 4,4 C 93 % 1021,6 hPa 0,0 l/m 0 min 0 min 0 W/m 12,9 km/h (3 Bft) 93,62 %
20.02.2023 22:54 8,1 C 7,2 C 4,4 C 93 % 1021,6 hPa 0,0 l/m 0 min 0 min 0 W/m 16,1 km/h (3 Bft) 97,87 %
20.02.2023 22:56 8,1 C 7,2 C 4,4 C 93 % 1021,6 hPa 0,0 l/m 0 min 0 min 0 W/m 19,3 km/h (3 Bft) 93,62 %
20.02.2023 22:58 8,1 C 7,2 C 4,4 C 93 % 1021,6 hPa 0,0 l/m 0 min 0 min 0 W/m 12,9 km/h (3 Bft) 93,48 %
20.02.2023 23:00 8,1 C 7,2 C 4,4 C 93 % 1021,7 hPa 0,0 l/m 0 min 0 min 0 W/m 38,6 km/h (5 Bft) 95,74 %
20.02.2023 23:02 8,1 C 7,2 C 4,4 C 93 % 1021,7 hPa 0,0 l/m 0 min 0 min 0 W/m 9,7 km/h (2 Bft) 95,83 %
20.02.2023 23:04 8,1 C 7,2 C 4,4 C 93 % 1021,6 hPa 0,0 l/m 0 min 0 min 0 W/m 9,7 km/h (2 Bft) 95,74 %
20.02.2023 23:06 8,1 C 7,2 C 4,4 C 93 % 1021,5 hPa 0,0 l/m 0 min 0 min 0 W/m 16,1 km/h (3 Bft) 93,10 %
20.02.2023 23:08 8,1 C 7,2 C 4,4 C 93 % 1021,4 hPa 0,0 l/m 0 min 0 min 0 W/m 12,9 km/h (3 Bft) 97,14 %
20.02.2023 23:10 8,1 C 7,2 C 4,4 C 94 % 1021,4 hPa 0,0 l/m 0 min 0 min 0 W/m 9,7 km/h (2 Bft) 95,74 %
20.02.2023 23:12 8,1 C 7,2 C 4,4 C 94 % 1021,4 hPa 0,0 l/m 0 min 0 min 0 W/m 6,4 km/h (2 Bft) 97,87 %
20.02.2023 23:14 8,1 C 7,2 C 4,4 C 94 % 1021,4 hPa 0,0 l/m 0 min 0 min 0 W/m 16,1 km/h (3 Bft) 93,62 %
20.02.2023 23:16 8,0 C 7,2 C 4,4 C 94 % 1021,4 hPa 0,0 l/m 0 min 0 min 0 W/m 19,3 km/h (3 Bft) 93,62 %
20.02.2023 23:18 8,1 C 7,2 C 4,4 C 94 % 1021,4 hPa 0,0 l/m 0 min 0 min 0 W/m 12,9 km/h (3 Bft) 93,62 %
20.02.2023 23:20 8,0 C 7,2 C 4,4 C 94 % 1021,4 hPa 0,0 l/m 0 min 0 min 0 W/m 16,1 km/h (3 Bft) 97,83 %
20.02.2023 23:22 8,0 C 7,2 C 4,4 C 93 % 1021,5 hPa 0,0 l/m 0 min 0 min 0 W/m 19,3 km/h (3 Bft) 97,87 %
20.02.2023 23:24 8,0 C 7,2 C 4,4 C 93 % 1021,5 hPa 0,0 l/m 0 min 0 min 0 W/m 16,1 km/h (3 Bft) 97,87 %
20.02.2023 23:26 8,0 C 7,2 C 4,4 C 94 % 1021,5 hPa 0,0 l/m 0 min 0 min 0 W/m 16,1 km/h (3 Bft) 97,87 %
20.02.2023 23:28 8,0 C 7,2 C 4,4 C 94 % 1021,5 hPa 0,0 l/m 0 min 0 min 0 W/m 16,1 km/h (3 Bft) 100,00 %
20.02.2023 23:30 8,0 C 7,2 C 4,4 C 94 % 1021,5 hPa 0,0 l/m 0 min 0 min 0 W/m 16,1 km/h (3 Bft) 100,00 %
20.02.2023 23:32 8,0 C 7,2 C 4,4 C 94 % 1021,5 hPa 0,0 l/m 0 min 0 min 0 W/m 12,9 km/h (3 Bft) 100,00 %
20.02.2023 23:34 8,0 C 7,2 C 4,4 C 94 % 1021,5 hPa 0,0 l/m 0 min 0 min 0 W/m 12,9 km/h (3 Bft) 100,00 %
20.02.2023 23:36 8,0 C 7,2 C 4,4 C 94 % 1021,5 hPa 0,0 l/m 0 min 0 min 0 W/m 6,4 km/h (2 Bft) 100,00 %
20.02.2023 23:38 8,0 C 7,2 C 4,4 C 94 % 1021,4 hPa 0,0 l/m 0 min 0 min 0 W/m 12,9 km/h (3 Bft) 100,00 %
20.02.2023 23:40 8,0 C 7,2 C 4,4 C 94 % 1021,4 hPa 0,0 l/m 0 min 0 min 0 W/m 19,3 km/h (3 Bft) 100,00 %
20.02.2023 23:42 8,0 C 7,2 C 4,4 C 94 % 1021,4 hPa 0,0 l/m 0 min 0 min 0 W/m 12,9 km/h (3 Bft) 100,00 %
20.02.2023 23:44 8,0 C 7,2 C 4,4 C 94 % 1021,4 hPa 0,0 l/m 0 min 0 min 0 W/m 12,9 km/h (3 Bft) 100,00 %
20.02.2023 23:46 7,9 C 7,2 C 4,4 C 94 % 1021,4 hPa 0,0 l/m 0 min 0 min 0 W/m 6,4 km/h (2 Bft) 97,83 %
20.02.2023 23:48 8,0 C 7,2 C 4,4 C 94 % 1021,3 hPa 0,0 l/m 0 min 0 min 0 W/m 12,9 km/h (3 Bft) 97,87 %
20.02.2023 23:50 8,0 C 7,2 C 4,4 C 94 % 1021,3 hPa 0,0 l/m 0 min 0 min 0 W/m 16,1 km/h (3 Bft) 97,87 %
20.02.2023 23:52 7,9 C 7,2 C 4,4 C 94 % 1021,4 hPa 0,0 l/m 0 min 0 min 0 W/m 19,3 km/h (3 Bft) 97,87 %
20.02.2023 23:54 7,9 C 7,2 C 4,4 C 94 % 1021,3 hPa 0,0 l/m 0 min 0 min 0 W/m 12,9 km/h (3 Bft) 97,87 %
20.02.2023 23:56 7,9 C 7,2 C 4,4 C 94 % 1021,4 hPa 0,0 l/m 0 min 0 min 0 W/m 9,7 km/h (2 Bft) 97,87 %
20.02.2023 23:58 7,9 C 7,2 C 4,4 C 94 % 1021,4 hPa 0,0 l/m 0 min 0 min 0 W/m 9,7 km/h (2 Bft) 97,83 %
_ Min-Zeit 01:12 00:24 00:18 12:46 23:48 - - - - 00:20 21:30
Minimum _ 4,9 C 3,9 C 1,7 C 89 % 1021,3 hPa - - - - 3,2 km/h (1 Bft) 32,26 %
_ Max-Zeit 20:42 14:16 14:52 01:44 00:14 00:00 00:00 00:00 12:18 12:54 00:24
Maximum _ 8,4 C 7,8 C 5,0 C 95 % 1027,5 hPa 0,0 l/m 0 min 0 min 133 W/m 45,1 km/h
O-SO (6 Bft)
100,00 %
Durchschnitt _ 6,9 C 6,4 C 3,6 C 92 % 1023,8 hPa #0,0 l/m #0 min. #0 min. 65 W/m 16,2 km/h (3 Bft) 96,18 %
© 2023 W. Hausmann